Time,TemperatureF,DewpointF,PressureIn,WindDirection,WindDirectionDegrees,WindSpeedMPH,WindSpeedGustMPH,Humidity,HourlyPrecipIn,Conditions,Clouds,dailyrainin,SoftwareType,DateUTC
2013-06-20 00:00:00,79.7,73.0,30.02,ESE,121,0.0,0.0,80,0.00,,,0.00,Wunderground v.1.15,2013-06-20 04:00:00,
2013-06-20 00:01:00,79.7,73.0,30.02,ESE,121,0.0,1.0,80,0.00,,,0.00,Wunderground v.1.15,2013-06-20 04:01:00,
2013-06-20 00:03:00,79.7,73.0,30.02,ESE,121,0.0,1.0,80,0.00,,,0.00,Wunderground v.1.15,2013-06-20 04:03:00,
2013-06-20 00:05:00,79.7,73.0,30.02,ESE,121,0.0,1.0,80,0.00,,,0.00,Wunderground v.1.15,2013-06-20 04:05:00,
2013-06-20 00:06:00,79.7,73.3,30.02,ESE,121,0.0,1.0,81,0.00,,,0.00,Wunderground v.1.15,2013-06-20 04:06:00,
2013-06-20 00:11:00,79.5,73.2,30.03,East,96,1.0,1.0,81,0.00,,,0.00,Wunderground v.1.15,2013-06-20 04:11:00,
2013-06-20 00:12:00,79.5,73.2,30.03,East,94,1.0,1.0,81,0.00,,,0.00,Wunderground v.1.15,2013-06-20 04:12:00,
2013-06-20 00:13:00,79.4,73.1,30.03,East,97,0.0,1.0,81,0.00,,,0.00,Wunderground v.1.15,2013-06-20 04:13:00,
2013-06-20 00:15:00,79.4,73.4,30.03,East,97,0.0,1.0,82,0.00,,,0.00,Wunderground v.1.15,2013-06-20 04:15:00,
2013-06-20 00:18:00,79.3,73.3,30.03,East,97,0.0,1.0,82,0.00,,,0.00,Wunderground v.1.15,2013-06-20 04:18:00,
2013-06-20 00:19:00,79.3,73.3,30.03,East,97,0.0,1.0,82,0.00,,,0.00,Wunderground v.1.15,2013-06-20 04:19:00,
2013-06-20 00:20:00,79.3,73.3,30.03,East,97,0.0,0.0,82,0.00,,,0.00,Wunderground v.1.15,2013-06-20 04:20:00,
2013-06-20 00:24:00,79.3,73.3,30.03,East,97,0.0,0.0,82,0.00,,,0.00,Wunderground v.1.15,2013-06-20 04:24:00,
2013-06-20 00:26:00,79.3,73.3,30.03,East,97,0.0,0.0,82,0.00,,,0.00,Wunderground v.1.15,2013-06-20 04:26:00,
2013-06-20 00:28:00,79.2,73.2,30.03,East,97,0.0,0.0,82,0.00,,,0.00,Wunderground v.1.15,2013-06-20 04:28:00,
2013-06-20 00:31:00,79.1,73.5,30.03,East,97,0.0,0.0,83,0.00,,,0.00,Wunderground v.1.15,2013-06-20 04:31:00,
2013-06-20 00:32:00,79.1,73.5,30.03,East,97,0.0,0.0,83,0.00,,,0.00,Wunderground v.1.15,2013-06-20 04:32:00,
2013-06-20 00:34:00,79.1,73.8,30.03,East,98,0.0,0.0,84,0.00,,,0.00,Wunderground v.1.15,2013-06-20 04:34:00,
2013-06-20 00:36:00,79.2,73.9,30.03,East,97,0.0,0.0,84,0.00,,,0.00,Wunderground v.1.15,2013-06-20 04:36:00,
2013-06-20 00:38:00,79.1,73.8,30.03,East,97,0.0,0.0,84,0.00,,,0.00,Wunderground v.1.15,2013-06-20 04:38:00,
2013-06-20 00:39:00,79.1,73.5,30.03,East,97,0.0,0.0,83,0.00,,,0.00,Wunderground v.1.15,2013-06-20 04:39:00,
2013-06-20 00:41:00,78.9,73.3,30.03,East,97,0.0,0.0,83,0.00,,,0.00,Wunderground v.1.15,2013-06-20 04:41:00,
2013-06-20 00:43:00,78.9,73.7,30.03,East,97,0.0,0.0,84,0.00,,,0.00,Wunderground v.1.15,2013-06-20 04:43:00,
2013-06-20 00:44:00,78.8,73.6,30.03,East,97,0.0,0.0,84,0.00,,,0.00,Wunderground v.1.15,2013-06-20 04:44:00,
2013-06-20 00:45:00,78.7,73.5,30.03,East,97,0.0,0.0,84,0.00,,,0.00,Wunderground v.1.15,2013-06-20 04:45:00,
2013-06-20 00:46:00,78.7,73.5,30.03,East,97,0.0,0.0,84,0.00,,,0.00,Wunderground v.1.15,2013-06-20 04:46:00,
2013-06-20 00:49:00,78.8,73.9,30.03,East,97,0.0,1.0,85,0.00,,,0.00,Wunderground v.1.15,2013-06-20 04:49:00,
2013-06-20 00:50:00,78.8,73.9,30.03,East,96,0.0,1.0,85,0.00,,,0.00,Wunderground v.1.15,2013-06-20 04:50:00,
2013-06-20 00:53:00,78.8,73.9,30.03,East,96,1.0,1.0,85,0.00,,,0.00,Wunderground v.1.15,2013-06-20 04:53:00,
2013-06-20 00:54:00,78.8,73.9,30.03,ESE,108,1.0,1.0,85,0.00,,,0.00,Wunderground v.1.15,2013-06-20 04:54:00,
2013-06-20 00:55:00,78.8,73.9,30.03,East,84,1.0,2.0,85,0.00,,,0.00,Wunderground v.1.15,2013-06-20 04:55:00,
2013-06-20 00:56:00,78.8,73.9,30.03,East,98,1.0,2.0,85,0.00,,,0.00,Wunderground v.1.15,2013-06-20 04:56:00,
2013-06-20 00:59:00,78.8,73.9,30.03,East,93,1.0,2.0,85,0.00,,,0.00,Wunderground v.1.15,2013-06-20 04:59:00,
2013-06-20 01:02:00,78.7,73.8,30.03,ESE,103,1.0,1.0,85,0.00,,,0.00,Wunderground v.1.15,2013-06-20 05:02:00,
2013-06-20 01:03:00,78.7,73.8,30.03,ESE,102,1.0,1.0,85,0.00,,,0.00,Wunderground v.1.15,2013-06-20 05:03:00,
2013-06-20 01:04:00,78.7,73.8,30.03,East,93,1.0,2.0,85,0.00,,,0.00,Wunderground v.1.15,2013-06-20 05:04:00,
2013-06-20 01:06:00,78.7,73.8,30.03,East,101,1.0,2.0,85,0.00,,,0.00,Wunderground v.1.15,2013-06-20 05:06:00,
2013-06-20 01:09:00,78.8,73.9,30.03,ESE,109,1.0,2.0,85,0.00,,,0.00,Wunderground v.1.15,2013-06-20 05:09:00,
2013-06-20 01:10:00,78.8,73.9,30.03,East,100,1.0,1.0,85,0.00,,,0.00,Wunderground v.1.15,2013-06-20 05:10:00,
2013-06-20 01:13:00,78.8,73.9,30.03,ESE,111,1.0,1.0,85,0.00,,,0.00,Wunderground v.1.15,2013-06-20 05:13:00,
2013-06-20 01:14:00,78.8,73.9,30.03,ESE,111,1.0,1.0,85,0.00,,,0.00,Wunderground v.1.15,2013-06-20 05:14:00,
2013-06-20 01:15:00,78.8,73.9,30.03,ESE,112,1.0,1.0,85,0.00,,,0.00,Wunderground v.1.15,2013-06-20 05:15:00,
2013-06-20 01:19:00,78.8,74.3,30.03,ESE,105,1.0,2.0,86,0.00,,,0.00,Wunderground v.1.15,2013-06-20 05:19:00,
2013-06-20 01:20:00,78.7,74.2,30.03,ENE,76,1.0,2.0,86,0.00,,,0.00,Wunderground v.1.15,2013-06-20 05:20:00,
2013-06-20 01:21:00,78.7,74.2,30.03,East,86,1.0,3.0,86,0.00,,,0.00,Wunderground v.1.15,2013-06-20 05:21:00,
2013-06-20 01:23:00,78.7,74.2,30.03,ENE,75,1.0,3.0,86,0.00,,,0.00,Wunderground v.1.15,2013-06-20 05:23:00,
2013-06-20 01:25:00,78.7,74.2,30.03,East,89,2.0,3.0,86,0.00,,,0.00,Wunderground v.1.15,2013-06-20 05:25:00,
2013-06-20 01:26:00,78.7,74.2,30.02,East,81,2.0,3.0,86,0.00,,,0.00,Wunderground v.1.15,2013-06-20 05:26:00,
2013-06-20 01:29:00,78.6,74.1,30.02,East,82,2.0,3.0,86,0.00,,,0.00,Wunderground v.1.15,2013-06-20 05:29:00,
2013-06-20 01:30:00,78.6,74.1,30.03,East,79,2.0,2.0,86,0.00,,,0.00,Wunderground v.1.15,2013-06-20 05:30:00,
2013-06-20 01:31:00,78.6,74.1,30.03,East,98,2.0,2.0,86,0.00,,,0.00,Wunderground v.1.15,2013-06-20 05:31:00,
2013-06-20 01:34:00,78.6,74.1,30.03,East,91,2.0,2.0,86,0.00,,,0.00,Wunderground v.1.15,2013-06-20 05:34:00,
2013-06-20 01:36:00,78.6,74.1,30.03,ESE,111,2.0,2.0,86,0.00,,,0.00,Wunderground v.1.15,2013-06-20 05:36:00,
2013-06-20 01:38:00,78.6,74.1,30.03,East,97,1.0,2.0,86,0.00,,,0.00,Wunderground v.1.15,2013-06-20 05:38:00,
2013-06-20 01:39:00,78.6,74.1,30.03,East,101,1.0,2.0,86,0.00,,,0.00,Wunderground v.1.15,2013-06-20 05:39:00,
2013-06-20 01:43:00,78.5,74.0,30.03,East,88,1.0,4.0,86,0.00,,,0.00,Wunderground v.1.15,2013-06-20 05:43:00,
2013-06-20 01:44:00,78.5,74.0,30.03,East,87,1.0,4.0,86,0.00,,,0.00,Wunderground v.1.15,2013-06-20 05:44:00,
2013-06-20 01:45:00,78.5,74.3,30.03,East,96,1.0,4.0,87,0.00,,,0.00,Wunderground v.1.15,2013-06-20 05:45:00,
2013-06-20 01:47:00,78.5,74.3,30.03,ESE,104,1.0,4.0,87,0.00,,,0.00,Wunderground v.1.15,2013-06-20 05:47:00,
2013-06-20 01:49:00,78.5,74.3,30.02,East,88,1.0,1.0,87,0.00,,,0.00,Wunderground v.1.15,2013-06-20 05:49:00,
2013-06-20 01:50:00,78.5,74.3,30.02,ESE,103,1.0,1.0,87,0.00,,,0.00,Wunderground v.1.15,2013-06-20 05:50:00,
2013-06-20 01:55:00,78.5,74.3,30.02,ESE,102,1.0,2.0,87,0.00,,,0.00,Wunderground v.1.15,2013-06-20 05:55:00,
2013-06-20 01:57:00,78.5,74.3,30.02,East,94,1.0,2.0,87,0.00,,,0.00,Wunderground v.1.15,2013-06-20 05:57:00,
2013-06-20 01:59:00,78.5,74.0,30.02,East,98,2.0,2.0,86,0.00,,,0.00,Wunderground v.1.15,2013-06-20 05:59:00,
2013-06-20 02:02:00,78.5,74.0,30.02,ENE,77,2.0,3.0,86,0.00,,,0.00,Wunderground v.1.15,2013-06-20 06:02:00,
2013-06-20 02:04:00,78.5,74.0,30.02,ESE,120,2.0,3.0,86,0.00,,,0.00,Wunderground v.1.15,2013-06-20 06:04:00,
2013-06-20 02:05:00,78.5,74.0,30.02,East,97,2.0,3.0,86,0.00,,,0.00,Wunderground v.1.15,2013-06-20 06:05:00,
2013-06-20 02:06:00,78.4,73.9,30.02,East,98,2.0,3.0,86,0.00,,,0.00,Wunderground v.1.15,2013-06-20 06:06:00,
2013-06-20 02:09:00,78.5,73.6,30.02,East,86,2.0,4.0,85,0.00,,,0.00,Wunderground v.1.15,2013-06-20 06:09:00,
2013-06-20 02:10:00,78.4,73.5,30.02,ESE,121,2.0,2.0,85,0.00,,,0.00,Wunderground v.1.15,2013-06-20 06:10:00,
2013-06-20 02:12:00,78.4,73.5,30.02,ESE,116,2.0,2.0,85,0.00,,,0.00,Wunderground v.1.15,2013-06-20 06:12:00,
2013-06-20 02:15:00,78.4,73.5,30.02,SE,125,2.0,3.0,85,0.00,,,0.00,Wunderground v.1.15,2013-06-20 06:15:00,
2013-06-20 02:17:00,78.5,73.6,30.02,ESE,111,2.0,3.0,85,0.00,,,0.00,Wunderground v.1.15,2013-06-20 06:17:00,
2013-06-20 02:21:00,78.5,73.3,30.01,ESE,106,2.0,2.0,84,0.00,,,0.00,Wunderground v.1.15,2013-06-20 06:21:00,
2013-06-20 02:22:00,78.5,73.3,30.01,ESE,121,2.0,2.0,84,0.00,,,0.00,Wunderground v.1.15,2013-06-20 06:22:00,
2013-06-20 02:23:00,78.5,73.3,30.01,ESE,119,2.0,2.0,84,0.00,,,0.00,Wunderground v.1.15,2013-06-20 06:23:00,
2013-06-20 02:27:00,78.5,73.3,30.01,ESE,113,2.0,4.0,84,0.00,,,0.00,Wunderground v.1.15,2013-06-20 06:27:00,
2013-06-20 02:28:00,78.5,73.3,30.01,ESE,115,2.0,4.0,84,0.00,,,0.00,Wunderground v.1.15,2013-06-20 06:28:00,
2013-06-20 02:29:00,78.5,73.6,30.01,East,87,1.0,1.0,85,0.00,,,0.00,Wunderground v.1.15,2013-06-20 06:29:00,
2013-06-20 02:33:00,78.5,73.6,30.01,SE,124,1.0,3.0,85,0.00,,,0.00,Wunderground v.1.15,2013-06-20 06:33:00,
2013-06-20 02:34:00,78.5,73.6,30.01,ESE,118,2.0,3.0,85,0.00,,,0.00,Wunderground v.1.15,2013-06-20 06:34:00,
2013-06-20 02:37:00,78.5,73.6,30.01,ESE,106,2.0,3.0,85,0.00,,,0.00,Wunderground v.1.15,2013-06-20 06:37:00,
2013-06-20 02:38:00,78.4,73.5,30.01,ESE,105,2.0,3.0,85,0.00,,,0.00,Wunderground v.1.15,2013-06-20 06:38:00,
2013-06-20 02:41:00,78.4,73.5,30.01,ESE,106,2.0,2.0,85,0.00,,,0.00,Wunderground v.1.15,2013-06-20 06:41:00,
2013-06-20 02:42:00,78.4,73.9,30.01,East,97,2.0,2.0,86,0.00,,,0.00,Wunderground v.1.15,2013-06-20 06:42:00,
2013-06-20 02:45:00,78.4,73.9,30.01,ESE,115,1.0,2.0,86,0.00,,,0.00,Wunderground v.1.15,2013-06-20 06:45:00,
2013-06-20 02:46:00,78.4,73.9,30.01,ESE,114,1.0,2.0,86,0.00,,,0.00,Wunderground v.1.15,2013-06-20 06:46:00,
2013-06-20 02:47:00,78.3,73.8,30.01,ESE,109,1.0,2.0,86,0.00,,,0.00,Wunderground v.1.15,2013-06-20 06:47:00,
2013-06-20 02:49:00,78.3,73.8,30.01,ESE,109,1.0,1.0,86,0.00,,,0.00,Wunderground v.1.15,2013-06-20 06:49:00,
2013-06-20 02:52:00,78.3,73.8,30.01,ESE,109,1.0,1.0,86,0.00,,,0.00,Wunderground v.1.15,2013-06-20 06:52:00,
2013-06-20 02:53:00,78.2,73.7,30.01,ESE,108,1.0,1.0,86,0.00,,,0.00,Wunderground v.1.15,2013-06-20 06:53:00,
2013-06-20 02:54:00,78.2,74.0,30.01,East,101,1.0,1.0,87,0.00,,,0.00,Wunderground v.1.15,2013-06-20 06:54:00,
2013-06-20 02:58:00,78.1,73.9,30.01,ESE,109,0.0,1.0,87,0.00,,,0.00,Wunderground v.1.15,2013-06-20 06:58:00,
2013-06-20 03:00:00,78.1,73.9,30.01,ESE,105,0.0,0.0,87,0.00,,,0.00,Wunderground v.1.15,2013-06-20 07:00:00,
2013-06-20 03:02:00,78.0,73.8,30.01,East,101,1.0,2.0,87,0.00,,,0.00,Wunderground v.1.15,2013-06-20 07:02:00,
2013-06-20 03:03:00,78.0,73.8,30.01,East,98,1.0,2.0,87,0.00,,,0.00,Wunderground v.1.15,2013-06-20 07:03:00,
2013-06-20 03:04:00,78.0,73.8,30.01,East,100,1.0,2.0,87,0.00,,,0.00,Wunderground v.1.15,2013-06-20 07:04:00,
2013-06-20 03:05:00,78.0,73.8,30.01,East,100,0.0,2.0,87,0.00,,,0.00,Wunderground v.1.15,2013-06-20 07:05:00,
2013-06-20 03:08:00,77.9,73.7,30.01,East,97,1.0,2.0,87,0.00,,,0.00,Wunderground v.1.15,2013-06-20 07:08:00,
2013-06-20 03:10:00,77.9,73.7,30.00,East,87,1.0,1.0,87,0.00,,,0.00,Wunderground v.1.15,2013-06-20 07:10:00,
2013-06-20 03:11:00,77.9,73.7,30.01,East,87,1.0,1.0,87,0.00,,,0.00,Wunderground v.1.15,2013-06-20 07:11:00,
2013-06-20 03:13:00,77.8,74.0,30.01,ESE,102,0.0,1.0,88,0.00,,,0.00,Wunderground v.1.15,2013-06-20 07:13:00,
2013-06-20 03:15:00,77.8,74.0,30.01,ESE,102,0.0,1.0,88,0.00,,,0.00,Wunderground v.1.15,2013-06-20 07:15:00,
2013-06-20 03:16:00,77.8,74.0,30.01,East,101,0.0,1.0,88,0.00,,,0.00,Wunderground v.1.15,2013-06-20 07:16:00,
2013-06-20 03:17:00,77.8,74.0,30.01,ESE,102,0.0,1.0,88,0.00,,,0.00,Wunderground v.1.15,2013-06-20 07:17:00,
2013-06-20 03:19:00,77.7,73.9,30.01,ESE,102,0.0,1.0,88,0.00,,,0.00,Wunderground v.1.15,2013-06-20 07:19:00,
2013-06-20 03:23:00,77.6,73.8,30.01,East,97,0.0,2.0,88,0.00,,,0.00,Wunderground v.1.15,2013-06-20 07:23:00,
2013-06-20 03:24:00,77.6,73.8,30.00,East,95,0.0,2.0,88,0.00,,,0.00,Wunderground v.1.15,2013-06-20 07:24:00,
2013-06-20 03:26:00,77.5,73.7,30.00,East,100,1.0,2.0,88,0.00,,,0.00,Wunderground v.1.15,2013-06-20 07:26:00,
2013-06-20 03:28:00,77.5,73.7,30.00,ESE,108,1.0,2.0,88,0.00,,,0.00,Wunderground v.1.15,2013-06-20 07:28:00,
2013-06-20 03:30:00,77.5,73.7,30.00,ESE,109,1.0,1.0,88,0.00,,,0.00,Wunderground v.1.15,2013-06-20 07:30:00,
2013-06-20 03:31:00,77.5,73.7,30.00,East,101,1.0,2.0,88,0.00,,,0.00,Wunderground v.1.15,2013-06-20 07:31:00,
2013-06-20 03:35:00,77.4,73.6,30.00,ESE,104,1.0,2.0,88,0.00,,,0.00,Wunderground v.1.15,2013-06-20 07:35:00,
2013-06-20 03:36:00,77.4,73.6,30.00,ESE,102,1.0,2.0,88,0.00,,,0.00,Wunderground v.1.15,2013-06-20 07:36:00,
2013-06-20 03:37:00,77.4,73.6,30.00,ESE,103,1.0,2.0,88,0.00,,,0.00,Wunderground v.1.15,2013-06-20 07:37:00,
2013-06-20 03:38:00,77.4,73.6,30.00,ESE,103,1.0,2.0,88,0.00,,,0.00,Wunderground v.1.15,2013-06-20 07:38:00,
2013-06-20 03:43:00,77.3,73.8,30.00,East,99,1.0,1.0,89,0.00,,,0.00,Wunderground v.1.15,2013-06-20 07:43:00,
2013-06-20 03:44:00,77.2,73.7,30.00,East,100,1.0,1.0,89,0.00,,,0.00,Wunderground v.1.15,2013-06-20 07:44:00,
2013-06-20 03:45:00,77.2,73.7,30.00,East,98,1.0,1.0,89,0.00,,,0.00,Wunderground v.1.15,2013-06-20 07:45:00,
2013-06-20 03:46:00,77.2,73.7,30.00,East,98,1.0,1.0,89,0.00,,,0.00,Wunderground v.1.15,2013-06-20 07:46:00,
2013-06-20 03:49:00,77.2,73.7,30.00,ESE,104,0.0,1.0,89,0.00,,,0.00,Wunderground v.1.15,2013-06-20 07:49:00,
2013-06-20 03:50:00,77.2,73.7,30.00,ESE,104,0.0,0.0,89,0.00,,,0.00,Wunderground v.1.15,2013-06-20 07:50:00,
2013-06-20 03:52:00,77.2,73.7,30.00,ESE,103,0.0,0.0,89,0.00,,,0.00,Wunderground v.1.15,2013-06-20 07:52:00,
2013-06-20 03:53:00,77.2,73.7,30.00,ESE,105,0.0,1.0,89,0.00,,,0.00,Wunderground v.1.15,2013-06-20 07:53:00,
2013-06-20 03:56:00,77.2,73.7,30.00,ESE,102,0.0,1.0,89,0.00,,,0.00,Wunderground v.1.15,2013-06-20 07:56:00,
2013-06-20 03:57:00,77.2,73.7,30.00,ESE,103,0.0,1.0,89,0.00,,,0.00,Wunderground v.1.15,2013-06-20 07:57:00,
2013-06-20 03:59:00,77.1,73.3,30.00,ESE,108,0.0,1.0,88,0.00,,,0.00,Wunderground v.1.15,2013-06-20 07:59:00,
2013-06-20 04:02:00,77.1,73.3,29.99,ESE,102,1.0,2.0,88,0.00,,,0.00,Wunderground v.1.15,2013-06-20 08:02:00,
2013-06-20 04:04:00,77.1,73.3,29.99,ESE,114,1.0,2.0,88,0.00,,,0.00,Wunderground v.1.15,2013-06-20 08:04:00,
2013-06-20 04:06:00,77.1,73.3,29.99,ESE,114,1.0,2.0,88,0.00,,,0.00,Wunderground v.1.15,2013-06-20 08:06:00,
2013-06-20 04:07:00,77.2,73.4,29.99,ESE,119,1.0,2.0,88,0.00,,,0.00,Wunderground v.1.15,2013-06-20 08:07:00,
2013-06-20 04:12:00,77.3,73.1,29.99,East,98,1.0,2.0,87,0.00,,,0.00,Wunderground v.1.15,2013-06-20 08:12:00,
2013-06-20 04:13:00,77.3,73.1,29.99,East,100,1.0,2.0,87,0.00,,,0.00,Wunderground v.1.15,2013-06-20 08:13:00,
2013-06-20 04:15:00,77.2,73.0,29.99,East,96,1.0,2.0,87,0.00,,,0.00,Wunderground v.1.15,2013-06-20 08:15:00,
2013-06-20 04:16:00,77.3,73.1,29.99,East,96,1.0,2.0,87,0.00,,,0.00,Wunderground v.1.15,2013-06-20 08:16:00,
2013-06-20 04:17:00,77.2,73.0,29.99,East,98,1.0,2.0,87,0.00,,,0.00,Wunderground v.1.15,2013-06-20 08:17:00,
2013-06-20 04:19:00,77.3,73.1,29.99,East,98,1.0,2.0,87,0.00,,,0.00,Wunderground v.1.15,2013-06-20 08:19:00,
2013-06-20 04:22:00,77.2,73.0,29.99,East,99,1.0,1.0,87,0.00,,,0.00,Wunderground v.1.15,2013-06-20 08:22:00,
2013-06-20 04:23:00,77.2,73.0,29.99,East,97,1.0,2.0,87,0.00,,,0.00,Wunderground v.1.15,2013-06-20 08:23:00,
2013-06-20 04:25:00,77.2,73.0,29.99,East,97,0.0,2.0,87,0.00,,,0.00,Wunderground v.1.15,2013-06-20 08:25:00,
2013-06-20 04:27:00,77.3,73.1,29.99,East,97,0.0,2.0,87,0.00,,,0.00,Wunderground v.1.15,2013-06-20 08:27:00,
2013-06-20 04:28:00,77.3,73.1,29.99,East,97,0.0,2.0,87,0.00,,,0.00,Wunderground v.1.15,2013-06-20 08:28:00,
2013-06-20 04:32:00,77.2,73.0,29.99,East,99,0.0,0.0,87,0.00,,,0.00,Wunderground v.1.15,2013-06-20 08:32:00,
2013-06-20 04:33:00,77.2,73.0,29.99,East,99,0.0,0.0,87,0.00,,,0.00,Wunderground v.1.15,2013-06-20 08:33:00,
2013-06-20 04:36:00,77.2,73.0,30.00,East,82,0.0,2.0,87,0.00,,,0.00,Wunderground v.1.15,2013-06-20 08:36:00,
2013-06-20 04:38:00,77.2,73.0,30.00,East,86,1.0,2.0,87,0.00,,,0.00,Wunderground v.1.15,2013-06-20 08:38:00,
2013-06-20 04:39:00,77.2,73.0,30.00,ESE,105,1.0,1.0,87,0.00,,,0.00,Wunderground v.1.15,2013-06-20 08:39:00,
2013-06-20 04:43:00,77.2,73.0,30.00,ESE,111,1.0,2.0,87,0.00,,,0.00,Wunderground v.1.15,2013-06-20 08:43:00,
2013-06-20 04:44:00,77.1,72.9,30.00,ESE,111,1.0,2.0,87,0.00,,,0.00,Wunderground v.1.15,2013-06-20 08:44:00,
2013-06-20 04:48:00,77.1,72.9,30.00,ESE,103,1.0,2.0,87,0.00,,,0.00,Wunderground v.1.15,2013-06-20 08:48:00,
2013-06-20 04:49:00,77.1,72.9,30.00,ESE,106,1.0,2.0,87,0.00,,,0.00,Wunderground v.1.15,2013-06-20 08:49:00,
2013-06-20 04:50:00,77.1,72.9,30.00,East,89,1.0,1.0,87,0.00,,,0.00,Wunderground v.1.15,2013-06-20 08:50:00,
2013-06-20 04:53:00,77.1,72.9,30.00,East,101,1.0,2.0,87,0.00,,,0.00,Wunderground v.1.15,2013-06-20 08:53:00,
2013-06-20 04:56:00,77.0,72.8,30.00,East,97,1.0,2.0,87,0.00,,,0.00,Wunderground v.1.15,2013-06-20 08:56:00,
2013-06-20 04:58:00,76.9,73.1,30.00,East,92,1.0,2.0,88,0.00,,,0.00,Wunderground v.1.15,2013-06-20 08:58:00,
2013-06-20 05:03:00,76.9,73.1,30.00,ESE,109,1.0,2.0,88,0.00,,,0.00,Wunderground v.1.15,2013-06-20 09:03:00,
2013-06-20 05:05:00,76.8,73.0,30.00,ESE,109,1.0,2.0,88,0.00,,,0.00,Wunderground v.1.15,2013-06-20 09:05:00,
2013-06-20 05:06:00,76.8,73.0,30.00,ESE,109,1.0,2.0,88,0.00,,,0.00,Wunderground v.1.15,2013-06-20 09:06:00,
2013-06-20 05:08:00,76.7,72.9,30.00,ESE,109,1.0,2.0,88,0.00,,,0.00,Wunderground v.1.15,2013-06-20 09:08:00,
2013-06-20 05:09:00,76.7,72.9,30.00,ESE,109,0.0,2.0,88,0.00,,,0.00,Wunderground v.1.15,2013-06-20 09:09:00,
2013-06-20 05:11:00,76.7,72.9,30.00,ESE,109,0.0,0.0,88,0.00,,,0.00,Wunderground v.1.15,2013-06-20 09:11:00,
2013-06-20 05:12:00,76.6,72.8,30.00,ESE,109,0.0,0.0,88,0.00,,,0.00,Wunderground v.1.15,2013-06-20 09:12:00,
2013-06-20 05:13:00,76.6,72.8,30.00,ESE,115,0.0,0.0,88,0.00,,,0.00,Wunderground v.1.15,2013-06-20 09:13:00,
2013-06-20 05:16:00,76.6,72.8,30.00,ESE,115,0.0,0.0,88,0.00,,,0.00,Wunderground v.1.15,2013-06-20 09:16:00,
2013-06-20 05:17:00,76.6,72.8,30.00,ESE,106,0.0,0.0,88,0.00,,,0.00,Wunderground v.1.15,2013-06-20 09:17:00,
2013-06-20 05:18:00,76.6,72.8,30.00,ESE,113,0.0,1.0,88,0.00,,,0.00,Wunderground v.1.15,2013-06-20 09:18:00,
2013-06-20 05:22:00,76.6,72.8,30.00,ESE,102,1.0,2.0,88,0.00,,,0.00,Wunderground v.1.15,2013-06-20 09:22:00,
2013-06-20 05:24:00,76.5,72.7,30.00,ESE,102,1.0,2.0,88,0.00,,,0.00,Wunderground v.1.15,2013-06-20 09:24:00,
2013-06-20 05:27:00,76.5,72.7,30.00,SE,139,1.0,2.0,88,0.00,,,0.00,Wunderground v.1.15,2013-06-20 09:27:00,
2013-06-20 05:28:00,76.5,72.7,30.00,ESE,115,1.0,2.0,88,0.00,,,0.00,Wunderground v.1.15,2013-06-20 09:28:00,
2013-06-20 05:31:00,76.4,72.6,30.00,ESE,111,1.0,2.0,88,0.00,,,0.00,Wunderground v.1.15,2013-06-20 09:31:00,
2013-06-20 05:33:00,76.4,72.6,30.00,East,97,1.0,3.0,88,0.00,,,0.00,Wunderground v.1.15,2013-06-20 09:33:00,
2013-06-20 05:34:00,76.4,72.6,30.00,East,82,2.0,3.0,88,0.00,,,0.00,Wunderground v.1.15,2013-06-20 09:34:00,
2013-06-20 05:36:00,76.4,72.6,30.00,ESE,108,2.0,3.0,88,0.00,,,0.00,Wunderground v.1.15,2013-06-20 09:36:00,
2013-06-20 05:38:00,76.4,72.6,30.00,ESE,122,1.0,3.0,88,0.00,,,0.00,Wunderground v.1.15,2013-06-20 09:38:00,
2013-06-20 05:40:00,76.4,72.6,30.00,SE,130,1.0,1.0,88,0.00,,,0.00,Wunderground v.1.15,2013-06-20 09:40:00,
2013-06-20 05:41:00,76.3,72.5,30.00,SE,129,1.0,1.0,88,0.00,,,0.00,Wunderground v.1.15,2013-06-20 09:41:00,
2013-06-20 05:43:00,76.3,72.5,30.00,ESE,122,1.0,1.0,88,0.00,,,0.00,Wunderground v.1.15,2013-06-20 09:43:00,
2013-06-20 05:47:00,76.3,72.5,30.00,East,101,2.0,3.0,88,0.00,,,0.00,Wunderground v.1.15,2013-06-20 09:47:00,
2013-06-20 05:51:00,76.2,72.4,30.00,ESE,103,2.0,3.0,88,0.00,,,0.00,Wunderground v.1.15,2013-06-20 09:51:00,
2013-06-20 05:53:00,76.2,72.4,30.00,SE,129,2.0,3.0,88,0.00,,,0.00,Wunderground v.1.15,2013-06-20 09:53:00,
2013-06-20 05:55:00,76.2,72.4,30.01,SE,128,2.0,3.0,88,0.00,,,0.00,Wunderground v.1.15,2013-06-20 09:55:00,
2013-06-20 05:57:00,76.2,72.4,30.01,ESE,110,2.0,3.0,88,0.00,,,0.00,Wunderground v.1.15,2013-06-20 09:57:00,
2013-06-20 06:00:00,76.2,72.4,30.01,SSE,158,1.0,1.0,88,0.00,,,0.00,Wunderground v.1.15,2013-06-20 10:00:00,
2013-06-20 06:03:00,76.1,72.3,30.01,East,96,1.0,2.0,88,0.00,,,0.00,Wunderground v.1.15,2013-06-20 10:03:00,
2013-06-20 06:05:00,76.1,72.3,30.01,ESE,106,1.0,2.0,88,0.00,,,0.00,Wunderground v.1.15,2013-06-20 10:05:00,
2013-06-20 06:06:00,76.1,72.3,30.01,ESE,104,1.0,2.0,88,0.00,,,0.00,Wunderground v.1.15,2013-06-20 10:06:00,
2013-06-20 06:07:00,76.1,72.3,30.01,ESE,120,1.0,4.0,88,0.00,,,0.00,Wunderground v.1.15,2013-06-20 10:07:00,
2013-06-20 06:09:00,76.1,72.3,30.01,SE,124,1.0,4.0,88,0.00,,,0.00,Wunderground v.1.15,2013-06-20 10:09:00,
2013-06-20 06:10:00,76.1,72.3,30.01,ESE,120,2.0,2.0,88,0.00,,,0.00,Wunderground v.1.15,2013-06-20 10:10:00,
2013-06-20 06:11:00,76.1,72.3,30.01,East,93,2.0,2.0,88,0.00,,,0.00,Wunderground v.1.15,2013-06-20 10:11:00,
2013-06-20 06:14:00,76.0,72.2,30.01,SE,128,2.0,2.0,88,0.00,,,0.00,Wunderground v.1.15,2013-06-20 10:14:00,
2013-06-20 06:16:00,76.0,72.2,30.01,ESE,107,2.0,2.0,88,0.00,,,0.00,Wunderground v.1.15,2013-06-20 10:16:00,
2013-06-20 06:22:00,75.9,72.1,30.01,ESE,121,2.0,2.0,88,0.00,,,0.00,Wunderground v.1.15,2013-06-20 10:22:00,
2013-06-20 06:23:00,75.9,72.1,30.01,ESE,106,3.0,4.0,88,0.00,,,0.00,Wunderground v.1.15,2013-06-20 10:23:00,
2013-06-20 06:24:00,76.0,72.2,30.01,SE,129,3.0,4.0,88,0.00,,,0.00,Wunderground v.1.15,2013-06-20 10:24:00,
2013-06-20 06:25:00,75.9,72.1,30.01,SE,136,3.0,4.0,88,0.00,,,0.00,Wunderground v.1.15,2013-06-20 10:25:00,
2013-06-20 06:29:00,75.8,72.3,30.01,SE,134,2.0,4.0,89,0.00,,,0.00,Wunderground v.1.15,2013-06-20 10:29:00,
2013-06-20 06:30:00,75.8,72.3,30.01,ESE,115,2.0,2.0,89,0.00,,,0.00,Wunderground v.1.15,2013-06-20 10:30:00,
2013-06-20 06:31:00,75.8,72.3,30.01,SE,131,2.0,2.0,89,0.00,,,0.00,Wunderground v.1.15,2013-06-20 10:31:00,
2013-06-20 06:33:00,75.8,72.3,30.01,ESE,115,2.0,2.0,89,0.00,,,0.00,Wunderground v.1.15,2013-06-20 10:33:00,
2013-06-20 06:34:00,75.8,72.3,30.01,ESE,120,2.0,2.0,89,0.00,,,0.00,Wunderground v.1.15,2013-06-20 10:34:00,
2013-06-20 06:37:00,75.8,72.3,30.01,East,97,2.0,2.0,89,0.00,,,0.00,Wunderground v.1.15,2013-06-20 10:37:00,
2013-06-20 06:39:00,75.7,72.2,30.01,East,94,2.0,2.0,89,0.00,,,0.00,Wunderground v.1.15,2013-06-20 10:39:00,
2013-06-20 06:40:00,75.7,72.2,30.01,ESE,108,2.0,2.0,89,0.00,,,0.00,Wunderground v.1.15,2013-06-20 10:40:00,
2013-06-20 06:43:00,75.7,72.2,30.01,ESE,108,1.0,2.0,89,0.00,,,0.00,Wunderground v.1.15,2013-06-20 10:43:00,
2013-06-20 06:45:00,75.7,72.2,30.01,ESE,119,1.0,2.0,89,0.00,,,0.00,Wunderground v.1.15,2013-06-20 10:45:00,
2013-06-20 06:46:00,75.7,72.2,30.01,ESE,113,1.0,2.0,89,0.00,,,0.00,Wunderground v.1.15,2013-06-20 10:46:00,
2013-06-20 06:49:00,75.7,72.2,30.01,ESE,121,1.0,2.0,89,0.00,,,0.00,Wunderground v.1.15,2013-06-20 10:49:00,
2013-06-20 06:51:00,75.8,72.3,30.01,East,92,1.0,2.0,89,0.00,,,0.00,Wunderground v.1.15,2013-06-20 10:51:00,
2013-06-20 06:53:00,75.8,72.3,30.01,ESE,117,1.0,2.0,89,0.00,,,0.00,Wunderground v.1.15,2013-06-20 10:53:00,
2013-06-20 06:54:00,75.8,72.3,30.01,SE,124,1.0,2.0,89,0.00,,,0.00,Wunderground v.1.15,2013-06-20 10:54:00,
2013-06-20 06:58:00,76.0,72.5,30.01,ESE,111,1.0,2.0,89,0.00,,,0.00,Wunderground v.1.15,2013-06-20 10:58:00,
2013-06-20 07:03:00,76.2,72.7,30.01,ESE,117,2.0,2.0,89,0.00,,,0.00,Wunderground v.1.15,2013-06-20 11:03:00,
2013-06-20 07:04:00,76.2,72.7,30.01,ESE,108,1.0,2.0,89,0.00,,,0.00,Wunderground v.1.15,2013-06-20 11:04:00,
2013-06-20 07:05:00,76.3,72.8,30.01,ESE,111,1.0,2.0,89,0.00,,,0.00,Wunderground v.1.15,2013-06-20 11:05:00,
2013-06-20 07:06:00,76.4,72.9,30.01,SE,138,1.0,2.0,89,0.00,,,0.00,Wunderground v.1.15,2013-06-20 11:06:00,
2013-06-20 07:09:00,76.5,73.0,30.02,ESE,109,2.0,2.0,89,0.00,,,0.00,Wunderground v.1.15,2013-06-20 11:09:00,
2013-06-20 07:12:00,76.7,72.9,30.02,East,89,1.0,2.0,88,0.00,,,0.00,Wunderground v.1.15,2013-06-20 11:12:00,
2013-06-20 07:14:00,76.8,73.0,30.02,ESE,117,2.0,3.0,88,0.00,,,0.00,Wunderground v.1.15,2013-06-20 11:14:00,
2013-06-20 07:15:00,76.9,73.1,30.02,East,84,1.0,3.0,88,0.00,,,0.00,Wunderground v.1.15,2013-06-20 11:15:00,
2013-06-20 07:19:00,77.1,73.3,30.02,ESE,117,1.0,3.0,88,0.00,,,0.00,Wunderground v.1.15,2013-06-20 11:19:00,
2013-06-20 07:20:00,77.2,73.4,30.02,SE,134,1.0,1.0,88,0.00,,,0.00,Wunderground v.1.15,2013-06-20 11:20:00,
2013-06-20 07:21:00,77.3,73.5,30.02,SE,128,1.0,1.0,88,0.00,,,0.00,Wunderground v.1.15,2013-06-20 11:21:00,
2013-06-20 07:22:00,77.4,73.6,30.02,ESE,104,1.0,1.0,88,0.00,,,0.00,Wunderground v.1.15,2013-06-20 11:22:00,
2013-06-20 07:24:00,77.5,73.7,30.02,SE,125,1.0,3.0,88,0.00,,,0.00,Wunderground v.1.15,2013-06-20 11:24:00,
2013-06-20 07:25:00,77.6,73.8,30.02,East,101,1.0,3.0,88,0.00,,,0.00,Wunderground v.1.15,2013-06-20 11:25:00,
2013-06-20 07:31:00,77.7,73.5,30.02,SE,136,2.0,3.0,87,0.00,,,0.00,Wunderground v.1.15,2013-06-20 11:31:00,
2013-06-20 07:33:00,77.8,73.6,30.02,SE,135,2.0,3.0,87,0.00,,,0.00,Wunderground v.1.15,2013-06-20 11:33:00,
2013-06-20 07:34:00,77.9,73.7,30.02,East,98,2.0,3.0,87,0.00,,,0.00,Wunderground v.1.15,2013-06-20 11:34:00,
2013-06-20 07:36:00,77.9,73.7,30.02,ESE,115,2.0,3.0,87,0.00,,,0.00,Wunderground v.1.15,2013-06-20 11:36:00,
2013-06-20 07:37:00,78.0,73.8,30.03,ESE,121,2.0,3.0,87,0.00,,,0.00,Wunderground v.1.15,2013-06-20 11:37:00,
2013-06-20 07:39:00,78.1,73.9,30.02,ESE,114,2.0,3.0,87,0.00,,,0.00,Wunderground v.1.15,2013-06-20 11:39:00,
2013-06-20 07:41:00,78.3,74.1,30.02,ESE,112,2.0,5.0,87,0.00,,,0.00,Wunderground v.1.15,2013-06-20 11:41:00,
2013-06-20 07:42:00,78.3,74.1,30.02,East,99,2.0,5.0,87,0.00,,,0.00,Wunderground v.1.15,2013-06-20 11:42:00,
2013-06-20 07:43:00,78.4,73.9,30.02,SE,134,2.0,5.0,86,0.00,,,0.00,Wunderground v.1.15,2013-06-20 11:43:00,
2013-06-20 07:45:00,78.6,74.1,30.02,SSE,167,2.0,5.0,86,0.00,,,0.00,Wunderground v.1.15,2013-06-20 11:45:00,
2013-06-20 07:47:00,78.7,74.2,30.03,SE,139,2.0,5.0,86,0.00,,,0.00,Wunderground v.1.15,2013-06-20 11:47:00,
2013-06-20 07:48:00,78.8,74.3,30.03,SE,131,2.0,5.0,86,0.00,,,0.00,Wunderground v.1.15,2013-06-20 11:48:00,
2013-06-20 07:51:00,78.9,74.4,30.03,ESE,121,2.0,4.0,86,0.00,,,0.00,Wunderground v.1.15,2013-06-20 11:51:00,
2013-06-20 07:55:00,79.2,74.6,30.03,ESE,108,2.0,4.0,86,0.00,,,0.00,Wunderground v.1.15,2013-06-20 11:55:00,
2013-06-20 07:57:00,79.3,74.4,30.03,ESE,103,2.0,4.0,85,0.00,,,0.00,Wunderground v.1.15,2013-06-20 11:57:00,
2013-06-20 07:58:00,79.4,74.5,30.03,SE,137,2.0,4.0,85,0.00,,,0.00,Wunderground v.1.15,2013-06-20 11:58:00,
2013-06-20 08:00:00,79.4,74.5,30.03,ESE,119,2.0,2.0,85,0.00,,,0.00,Wunderground v.1.15,2013-06-20 12:00:00,
2013-06-20 08:03:00,79.8,74.9,30.03,ESE,118,2.0,2.0,85,0.00,,,0.00,Wunderground v.1.15,2013-06-20 12:03:00,
2013-06-20 08:04:00,79.9,75.0,30.03,SSE,155,2.0,2.0,85,0.00,,,0.00,Wunderground v.1.15,2013-06-20 12:04:00,
2013-06-20 08:06:00,80.1,74.8,30.03,SE,125,1.0,2.0,84,0.00,,,0.00,Wunderground v.1.15,2013-06-20 12:06:00,
2013-06-20 08:07:00,80.3,75.0,30.03,East,94,1.0,3.0,84,0.00,,,0.00,Wunderground v.1.15,2013-06-20 12:07:00,
2013-06-20 08:10:00,80.3,75.0,30.03,SE,135,1.0,1.0,84,0.00,,,0.00,Wunderground v.1.15,2013-06-20 12:10:00,
2013-06-20 08:12:00,80.5,75.2,30.03,NE,37,1.0,2.0,84,0.00,,,0.00,Wunderground v.1.15,2013-06-20 12:12:00,
2013-06-20 08:13:00,80.6,75.0,30.03,ESE,105,1.0,2.0,83,0.00,,,0.00,Wunderground v.1.15,2013-06-20 12:13:00,
2013-06-20 08:17:00,80.9,75.2,30.03,ESE,117,1.0,3.0,83,0.00,,,0.00,Wunderground v.1.15,2013-06-20 12:17:00,
2013-06-20 08:18:00,81.0,75.3,30.03,East,91,1.0,3.0,83,0.00,,,0.00,Wunderground v.1.15,2013-06-20 12:18:00,
2013-06-20 08:19:00,81.0,75.3,30.04,East,98,1.0,4.0,83,0.00,,,0.00,Wunderground v.1.15,2013-06-20 12:19:00,
2013-06-20 08:21:00,81.0,75.3,30.04,SE,135,2.0,2.0,83,0.00,,,0.00,Wunderground v.1.15,2013-06-20 12:21:00,
2013-06-20 08:23:00,81.2,75.5,30.04,SSE,148,2.0,2.0,83,0.00,,,0.00,Wunderground v.1.15,2013-06-20 12:23:00,
2013-06-20 08:24:00,81.3,75.6,30.04,ESE,104,2.0,2.0,83,0.00,,,0.00,Wunderground v.1.15,2013-06-20 12:24:00,
2013-06-20 08:25:00,81.4,75.7,30.04,ESE,117,2.0,2.0,83,0.00,,,0.00,Wunderground v.1.15,2013-06-20 12:25:00,
2013-06-20 08:30:00,81.9,75.9,30.04,ESE,106,2.0,2.0,82,0.00,,,0.00,Wunderground v.1.15,2013-06-20 12:30:00,
2013-06-20 08:31:00,81.9,75.9,30.04,SSE,158,2.0,3.0,82,0.00,,,0.00,Wunderground v.1.15,2013-06-20 12:31:00,
2013-06-20 08:33:00,82.1,76.1,30.04,SSE,160,2.0,4.0,82,0.00,,,0.00,Wunderground v.1.15,2013-06-20 12:33:00,
2013-06-20 08:35:00,82.3,76.3,30.04,ESE,110,2.0,4.0,82,0.00,,,0.00,Wunderground v.1.15,2013-06-20 12:35:00,
2013-06-20 08:36:00,82.3,76.3,30.04,SE,139,2.0,4.0,82,0.00,,,0.00,Wunderground v.1.15,2013-06-20 12:36:00,
2013-06-20 08:38:00,82.6,76.5,30.04,SE,145,2.0,4.0,82,0.00,,,0.00,Wunderground v.1.15,2013-06-20 12:38:00,
2013-06-20 08:39:00,82.7,76.6,30.04,SSW,205,2.0,4.0,82,0.00,,,0.00,Wunderground v.1.15,2013-06-20 12:39:00,
2013-06-20 08:40:00,82.9,76.5,30.04,South,184,2.0,2.0,81,0.00,,,0.00,Wunderground v.1.15,2013-06-20 12:40:00,
2013-06-20 08:43:00,83.2,76.8,30.04,SE,141,1.0,2.0,81,0.00,,,0.00,Wunderground v.1.15,2013-06-20 12:43:00,
2013-06-20 08:44:00,83.3,76.9,30.04,SE,146,1.0,4.0,81,0.00,,,0.00,Wunderground v.1.15,2013-06-20 12:44:00,
2013-06-20 08:46:00,83.4,76.6,30.04,SE,146,1.0,4.0,80,0.00,,,0.00,Wunderground v.1.15,2013-06-20 12:46:00,
2013-06-20 08:51:00,83.5,76.7,30.05,East,84,3.0,3.0,80,0.00,,,0.00,Wunderground v.1.15,2013-06-20 12:51:00,
2013-06-20 08:52:00,83.4,76.6,30.05,SE,134,3.0,3.0,80,0.00,,,0.00,Wunderground v.1.15,2013-06-20 12:52:00,
2013-06-20 08:53:00,83.5,77.1,30.05,SSE,149,3.0,3.0,81,0.00,,,0.00,Wunderground v.1.15,2013-06-20 12:53:00,
2013-06-20 08:56:00,83.6,77.1,30.05,SE,129,3.0,4.0,81,0.00,,,0.00,Wunderground v.1.15,2013-06-20 12:56:00,
2013-06-20 08:57:00,83.7,77.2,30.05,ESE,122,3.0,4.0,81,0.00,,,0.00,Wunderground v.1.15,2013-06-20 12:57:00,
2013-06-20 08:58:00,83.7,77.2,30.05,SSE,150,3.0,5.0,81,0.00,,,0.00,Wunderground v.1.15,2013-06-20 12:58:00,
2013-06-20 09:03:00,83.9,77.4,30.05,South,170,3.0,5.0,81,0.00,,,0.00,Wunderground v.1.15,2013-06-20 13:03:00,
2013-06-20 09:05:00,84.1,77.6,30.05,SE,141,3.0,5.0,81,0.00,,,0.00,Wunderground v.1.15,2013-06-20 13:05:00,
2013-06-20 09:07:00,84.1,77.6,30.05,SE,141,3.0,5.0,81,0.00,,,0.00,Wunderground v.1.15,2013-06-20 13:07:00,
2013-06-20 09:08:00,84.2,77.7,30.05,East,100,3.0,5.0,81,0.00,,,0.00,Wunderground v.1.15,2013-06-20 13:08:00,
2013-06-20 09:10:00,84.3,77.8,30.05,SE,139,3.0,4.0,81,0.00,,,0.00,Wunderground v.1.15,2013-06-20 13:10:00,
2013-06-20 09:11:00,84.4,77.9,30.05,South,172,3.0,4.0,81,0.00,,,0.00,Wunderground v.1.15,2013-06-20 13:11:00,
2013-06-20 09:13:00,84.6,78.1,30.05,South,179,3.0,5.0,81,0.00,,,0.00,Wunderground v.1.15,2013-06-20 13:13:00,
2013-06-20 09:14:00,84.6,77.7,30.05,South,177,3.0,5.0,80,0.00,,,0.00,Wunderground v.1.15,2013-06-20 13:14:00,
2013-06-20 09:16:00,84.8,77.9,30.05,SSW,210,3.0,5.0,80,0.00,,,0.00,Wunderground v.1.15,2013-06-20 13:16:00,
2013-06-20 09:17:00,84.8,78.3,30.05,SSW,198,3.0,5.0,81,0.00,,,0.00,Wunderground v.1.15,2013-06-20 13:17:00,
2013-06-20 09:19:00,85.0,78.1,30.05,SE,134,2.0,3.0,80,0.00,,,0.00,Wunderground v.1.15,2013-06-20 13:19:00,
2013-06-20 09:20:00,85.1,78.2,30.05,ESE,120,2.0,4.0,80,0.00,,,0.00,Wunderground v.1.15,2013-06-20 13:20:00,
2013-06-20 09:24:00,85.2,77.9,30.05,SE,141,3.0,4.0,79,0.00,,,0.00,Wunderground v.1.15,2013-06-20 13:24:00,
2013-06-20 09:26:00,85.4,78.5,30.05,SSW,212,3.0,4.0,80,0.00,,,0.00,Wunderground v.1.15,2013-06-20 13:26:00,
2013-06-20 09:29:00,85.4,78.1,30.05,SSW,198,3.0,9.0,79,0.00,,,0.00,Wunderground v.1.15,2013-06-20 13:29:00,
2013-06-20 09:30:00,85.2,77.9,30.05,SSW,195,4.0,4.0,79,0.00,,,0.00,Wunderground v.1.15,2013-06-20 13:30:00,
2013-06-20 09:32:00,85.1,77.8,30.05,South,176,4.0,4.0,79,0.00,,,0.00,Wunderground v.1.15,2013-06-20 13:32:00,
2013-06-20 09:34:00,85.1,77.8,30.05,South,181,4.0,4.0,79,0.00,,,0.00,Wunderground v.1.15,2013-06-20 13:34:00,
2013-06-20 09:36:00,85.1,77.5,30.05,SW,222,4.0,4.0,78,0.00,,,0.00,Wunderground v.1.15,2013-06-20 13:36:00,
2013-06-20 09:37:00,85.2,77.9,30.05,SSW,205,4.0,4.0,79,0.00,,,0.00,Wunderground v.1.15,2013-06-20 13:37:00,
2013-06-20 09:38:00,85.3,78.0,30.05,SW,214,4.0,4.0,79,0.00,,,0.00,Wunderground v.1.15,2013-06-20 13:38:00,
2013-06-20 09:43:00,85.4,77.8,30.05,SSE,158,4.0,5.0,78,0.00,,,0.00,Wunderground v.1.15,2013-06-20 13:43:00,
2013-06-20 09:44:00,85.4,77.8,30.05,SE,132,4.0,5.0,78,0.00,,,0.00,Wunderground v.1.15,2013-06-20 13:44:00,
2013-06-20 09:46:00,85.5,77.9,30.05,SW,229,4.0,5.0,78,0.00,,,0.00,Wunderground v.1.15,2013-06-20 13:46:00,
2013-06-20 09:50:00,85.8,77.8,30.05,SSW,211,4.0,4.0,77,0.00,,,0.00,Wunderground v.1.15,2013-06-20 13:50:00,
2013-06-20 09:52:00,85.9,77.8,30.05,SW,233,4.0,4.0,77,0.00,,,0.00,Wunderground v.1.15,2013-06-20 13:52:00,
2013-06-20 09:54:00,86.0,77.9,30.05,SW,217,4.0,5.0,77,0.00,,,0.00,Wunderground v.1.15,2013-06-20 13:54:00,
2013-06-20 09:55:00,86.1,78.0,30.05,SSW,208,4.0,5.0,77,0.00,,,0.00,Wunderground v.1.15,2013-06-20 13:55:00,
2013-06-20 09:57:00,86.1,77.2,30.05,WSW,256,4.0,6.0,75,0.00,,,0.00,Wunderground v.1.15,2013-06-20 13:57:00,
2013-06-20 10:02:00,86.0,77.9,30.06,SSE,152,4.0,6.0,77,0.00,,,0.00,Wunderground v.1.15,2013-06-20 14:02:00,
2013-06-20 10:03:00,85.8,77.4,30.05,SSW,193,4.0,6.0,76,0.00,,,0.00,Wunderground v.1.15,2013-06-20 14:03:00,
2013-06-20 10:05:00,85.7,77.3,30.06,South,184,4.0,6.0,76,0.00,,,0.00,Wunderground v.1.15,2013-06-20 14:05:00,
2013-06-20 10:06:00,85.7,78.0,30.05,SSW,195,4.0,6.0,78,0.00,,,0.00,Wunderground v.1.15,2013-06-20 14:06:00,
2013-06-20 10:08:00,85.8,77.8,30.06,SW,228,3.0,6.0,77,0.00,,,0.00,Wunderground v.1.15,2013-06-20 14:08:00,
2013-06-20 10:09:00,85.9,77.5,30.06,WSW,245,3.0,6.0,76,0.00,,,0.00,Wunderground v.1.15,2013-06-20 14:09:00,
2013-06-20 10:10:00,85.8,77.0,30.06,WSW,253,3.0,3.0,75,0.00,,,0.00,Wunderground v.1.15,2013-06-20 14:10:00,
2013-06-20 10:11:00,85.8,77.4,30.05,SSW,212,3.0,3.0,76,0.00,,,0.00,Wunderground v.1.15,2013-06-20 14:11:00,
2013-06-20 10:14:00,85.8,77.4,30.05,SSE,159,3.0,3.0,76,0.00,,,0.00,Wunderground v.1.15,2013-06-20 14:14:00,
2013-06-20 10:15:00,85.9,77.8,30.05,South,169,3.0,5.0,77,0.00,,,0.00,Wunderground v.1.15,2013-06-20 14:15:00,
2013-06-20 10:16:00,85.9,77.5,30.06,South,175,3.0,5.0,76,0.00,,,0.00,Wunderground v.1.15,2013-06-20 14:16:00,
2013-06-20 10:20:00,86.1,76.8,30.06,SSW,196,3.0,6.0,74,0.00,,,0.00,Wunderground v.1.15,2013-06-20 14:20:00,
2013-06-20 10:21:00,86.1,76.4,30.05,SW,217,3.0,6.0,73,0.00,,,0.00,Wunderground v.1.15,2013-06-20 14:21:00,
2013-06-20 10:22:00,86.1,76.8,30.05,SW,236,3.0,6.0,74,0.00,,,0.00,Wunderground v.1.15,2013-06-20 14:22:00,
2013-06-20 10:24:00,86.3,76.6,30.06,South,186,4.0,6.0,73,0.00,,,0.00,Wunderground v.1.15,2013-06-20 14:24:00,
2013-06-20 10:26:00,86.3,76.6,30.05,SW,220,4.0,6.0,73,0.00,,,0.00,Wunderground v.1.15,2013-06-20 14:26:00,
2013-06-20 10:27:00,86.4,76.7,30.06,SSE,156,4.0,6.0,73,0.00,,,0.00,Wunderground v.1.15,2013-06-20 14:27:00,
2013-06-20 10:29:00,86.6,76.9,30.06,SSE,153,3.0,6.0,73,0.00,,,0.00,Wunderground v.1.15,2013-06-20 14:29:00,
2013-06-20 10:34:00,86.7,75.3,30.06,SSW,196,4.0,6.0,69,0.00,,,0.00,Wunderground v.1.15,2013-06-20 14:34:00,
2013-06-20 10:35:00,86.7,75.7,30.06,SSW,197,3.0,6.0,70,0.00,,,0.00,Wunderground v.1.15,2013-06-20 14:35:00,
2013-06-20 10:36:00,86.8,75.8,30.06,SW,217,3.0,7.0,70,0.00,,,0.00,Wunderground v.1.15,2013-06-20 14:36:00,
2013-06-20 10:37:00,86.9,75.9,30.06,SSW,205,3.0,7.0,70,0.00,,,0.00,Wunderground v.1.15,2013-06-20 14:37:00,
2013-06-20 10:39:00,86.9,76.4,30.06,SW,225,4.0,7.0,71,0.00,,,0.00,Wunderground v.1.15,2013-06-20 14:39:00,
2013-06-20 10:40:00,86.9,75.5,30.06,SW,226,4.0,4.0,69,0.00,,,0.00,Wunderground v.1.15,2013-06-20 14:40:00,
2013-06-20 10:42:00,87.0,74.7,30.06,WNW,284,4.0,4.0,67,0.00,,,0.00,Wunderground v.1.15,2013-06-20 14:42:00,
2013-06-20 10:43:00,87.0,75.6,30.06,SW,233,4.0,4.0,69,0.00,,,0.00,Wunderground v.1.15,2013-06-20 14:43:00,
2013-06-20 10:44:00,87.0,75.6,30.06,SSW,210,3.0,6.0,69,0.00,,,0.00,Wunderground v.1.15,2013-06-20 14:44:00,
2013-06-20 10:47:00,87.1,75.7,30.06,SW,233,4.0,8.0,69,0.00,,,0.00,Wunderground v.1.15,2013-06-20 14:47:00,
2013-06-20 10:48:00,87.1,75.3,30.06,West,273,4.0,8.0,68,0.00,,,0.00,Wunderground v.1.15,2013-06-20 14:48:00,
2013-06-20 10:50:00,87.0,75.6,30.06,West,262,4.0,4.0,69,0.00,,,0.00,Wunderground v.1.15,2013-06-20 14:50:00,
2013-06-20 10:51:00,87.0,75.6,30.06,SW,231,4.0,4.0,69,0.00,,,0.00,Wunderground v.1.15,2013-06-20 14:51:00,
2013-06-20 10:53:00,87.2,76.2,30.06,SW,227,3.0,5.0,70,0.00,,,0.00,Wunderground v.1.15,2013-06-20 14:53:00,
2013-06-20 10:55:00,87.2,74.5,30.06,SW,219,3.0,5.0,66,0.00,,,0.00,Wunderground v.1.15,2013-06-20 14:55:00,
2013-06-20 10:56:00,87.4,75.5,30.06,SW,226,3.0,5.0,68,0.00,,,0.00,Wunderground v.1.15,2013-06-20 14:56:00,
2013-06-20 10:58:00,87.5,76.1,30.06,SW,227,3.0,5.0,69,0.00,,,0.00,Wunderground v.1.15,2013-06-20 14:58:00,
2013-06-20 11:00:00,87.6,75.3,30.06,SSW,211,3.0,4.0,67,0.00,,,0.00,Wunderground v.1.15,2013-06-20 15:00:00,
2013-06-20 11:02:00,87.7,76.3,30.06,SSW,204,3.0,9.0,69,0.00,,,0.00,Wunderground v.1.15,2013-06-20 15:02:00,
2013-06-20 11:03:00,87.7,75.8,30.06,SW,219,3.0,9.0,68,0.00,,,0.00,Wunderground v.1.15,2013-06-20 15:03:00,
2013-06-20 11:05:00,87.7,76.3,30.06,SW,235,3.0,9.0,69,0.00,,,0.00,Wunderground v.1.15,2013-06-20 15:05:00,
2013-06-20 11:07:00,87.8,76.4,30.06,SSE,166,4.0,9.0,69,0.00,,,0.00,Wunderground v.1.15,2013-06-20 15:07:00,
2013-06-20 11:10:00,87.9,75.1,30.06,SSW,207,4.0,4.0,66,0.00,,,0.00,Wunderground v.1.15,2013-06-20 15:10:00,
2013-06-20 11:11:00,87.9,74.7,30.06,South,186,4.0,4.0,65,0.00,,,0.00,Wunderground v.1.15,2013-06-20 15:11:00,
2013-06-20 11:13:00,87.9,74.2,30.06,South,181,4.0,4.0,64,0.00,,,0.00,Wunderground v.1.15,2013-06-20 15:13:00,
2013-06-20 11:16:00,88.3,76.4,30.06,SSW,212,3.0,6.0,68,0.00,,,0.00,Wunderground v.1.15,2013-06-20 15:16:00,
2013-06-20 11:18:00,88.3,76.4,30.06,SW,218,4.0,6.0,68,0.00,,,0.00,Wunderground v.1.15,2013-06-20 15:18:00,
2013-06-20 11:19:00,88.2,75.9,30.06,WSW,255,4.0,6.0,67,0.00,,,0.00,Wunderground v.1.15,2013-06-20 15:19:00,
2013-06-20 11:20:00,88.3,75.9,30.06,WSW,241,4.0,6.0,67,0.00,,,0.00,Wunderground v.1.15,2013-06-20 15:20:00,
2013-06-20 11:22:00,88.3,74.1,30.06,West,267,4.0,6.0,63,0.00,,,0.00,Wunderground v.1.15,2013-06-20 15:22:00,
2013-06-20 11:25:00,88.2,75.4,30.06,WSW,245,4.0,7.0,66,0.00,,,0.00,Wunderground v.1.15,2013-06-20 15:25:00,
2013-06-20 11:26:00,88.1,74.8,30.06,WSW,255,4.0,7.0,65,0.00,,,0.00,Wunderground v.1.15,2013-06-20 15:26:00,
2013-06-20 11:27:00,88.1,74.4,30.06,West,259,4.0,7.0,64,0.00,,,0.00,Wunderground v.1.15,2013-06-20 15:27:00,
2013-06-20 11:29:00,87.9,75.1,30.06,West,259,4.0,7.0,66,0.00,,,0.00,Wunderground v.1.15,2013-06-20 15:29:00,
2013-06-20 11:31:00,87.8,75.5,30.06,WSW,245,4.0,6.0,67,0.00,,,0.00,Wunderground v.1.15,2013-06-20 15:31:00,
2013-06-20 11:33:00,87.5,74.3,30.06,NNW,333,4.0,6.0,65,0.00,,,0.00,Wunderground v.1.15,2013-06-20 15:33:00,
2013-06-20 11:34:00,87.6,74.8,30.06,West,263,3.0,6.0,66,0.00,,,0.00,Wunderground v.1.15,2013-06-20 15:34:00,
2013-06-20 11:35:00,87.7,75.4,30.06,West,276,3.0,6.0,67,0.00,,,0.00,Wunderground v.1.15,2013-06-20 15:35:00,
2013-06-20 11:38:00,87.8,75.9,30.06,WNW,291,3.0,6.0,68,0.00,,,0.00,Wunderground v.1.15,2013-06-20 15:38:00,
2013-06-20 11:40:00,87.9,75.1,30.07,SSW,195,2.0,4.0,66,0.00,,,0.00,Wunderground v.1.15,2013-06-20 15:40:00,
2013-06-20 11:41:00,87.9,74.7,30.07,SSE,147,3.0,4.0,65,0.00,,,0.00,Wunderground v.1.15,2013-06-20 15:41:00,
2013-06-20 11:43:00,88.0,75.2,30.07,West,263,3.0,5.0,66,0.00,,,0.00,Wunderground v.1.15,2013-06-20 15:43:00,
2013-06-20 11:46:00,88.1,75.8,30.07,WSW,245,3.0,5.0,67,0.00,,,0.00,Wunderground v.1.15,2013-06-20 15:46:00,
2013-06-20 11:50:00,88.6,75.8,30.07,NW,314,4.0,4.0,66,0.00,,,0.00,Wunderground v.1.15,2013-06-20 15:50:00,
2013-06-20 11:52:00,88.4,75.6,30.07,SW,235,4.0,4.0,66,0.00,,,0.00,Wunderground v.1.15,2013-06-20 15:52:00,
2013-06-20 11:55:00,88.4,75.1,30.07,West,279,4.0,7.0,65,0.00,,,0.00,Wunderground v.1.15,2013-06-20 15:55:00,
2013-06-20 11:56:00,88.5,75.7,30.07,WSW,249,4.0,7.0,66,0.00,,,0.00,Wunderground v.1.15,2013-06-20 15:56:00,
2013-06-20 12:01:00,88.8,75.0,30.07,WSW,239,4.0,5.0,64,0.00,,,0.00,Wunderground v.1.15,2013-06-20 16:01:00,
2013-06-20 12:02:00,88.8,73.6,30.07,West,267,4.0,6.0,61,0.00,,,0.00,Wunderground v.1.15,2013-06-20 16:02:00,
2013-06-20 12:03:00,88.6,73.9,30.07,WNW,294,5.0,8.0,62,0.00,,,0.00,Wunderground v.1.15,2013-06-20 16:03:00,
2013-06-20 12:06:00,88.4,75.6,30.07,WSW,252,5.0,8.0,66,0.00,,,0.00,Wunderground v.1.15,2013-06-20 16:06:00,
2013-06-20 12:08:00,88.3,74.6,30.07,West,274,5.0,8.0,64,0.00,,,0.00,Wunderground v.1.15,2013-06-20 16:08:00,
2013-06-20 12:09:00,88.2,73.5,30.07,WSW,249,6.0,8.0,62,0.00,,,0.00,Wunderground v.1.15,2013-06-20 16:09:00,
2013-06-20 12:14:00,88.2,75.4,30.07,WNW,285,5.0,9.0,66,0.00,,,0.00,Wunderground v.1.15,2013-06-20 16:14:00,
2013-06-20 12:15:00,88.1,76.2,30.07,NW,304,5.0,9.0,68,0.00,,,0.00,Wunderground v.1.15,2013-06-20 16:15:00,
2013-06-20 12:19:00,87.9,76.0,30.07,WNW,293,6.0,9.0,68,0.00,,,0.00,Wunderground v.1.15,2013-06-20 16:19:00,
2013-06-20 12:21:00,87.9,76.0,30.07,WSW,242,5.0,5.0,68,0.00,,,0.00,Wunderground v.1.15,2013-06-20 16:21:00,
2013-06-20 12:23:00,87.8,75.9,30.07,SW,236,5.0,6.0,68,0.00,,,0.00,Wunderground v.1.15,2013-06-20 16:23:00,
2013-06-20 12:25:00,87.7,75.4,30.07,WNW,294,5.0,6.0,67,0.00,,,0.00,Wunderground v.1.15,2013-06-20 16:25:00,
2013-06-20 12:27:00,87.3,75.4,30.07,WSW,247,5.0,7.0,68,0.00,,,0.00,Wunderground v.1.15,2013-06-20 16:27:00,
2013-06-20 12:28:00,87.3,75.9,30.07,WNW,295,5.0,7.0,69,0.00,,,0.00,Wunderground v.1.15,2013-06-20 16:28:00,
2013-06-20 12:30:00,87.3,76.3,30.07,WNW,284,5.0,5.0,70,0.00,,,0.00,Wunderground v.1.15,2013-06-20 16:30:00,
2013-06-20 12:33:00,86.9,75.9,30.07,WNW,283,5.0,5.0,70,0.00,,,0.00,Wunderground v.1.15,2013-06-20 16:33:00,
2013-06-20 12:35:00,86.7,76.2,30.07,SW,214,5.0,7.0,71,0.00,,,0.00,Wunderground v.1.15,2013-06-20 16:35:00,
2013-06-20 12:39:00,86.5,76.4,30.07,WSW,245,5.0,7.0,72,0.00,,,0.00,Wunderground v.1.15,2013-06-20 16:39:00,
2013-06-20 12:41:00,86.3,75.8,30.07,SW,224,5.0,5.0,71,0.00,,,0.00,Wunderground v.1.15,2013-06-20 16:41:00,
2013-06-20 12:43:00,86.1,75.6,30.07,West,277,5.0,5.0,71,0.00,,,0.00,Wunderground v.1.15,2013-06-20 16:43:00,
2013-06-20 12:45:00,86.1,75.6,30.07,SW,217,5.0,8.0,71,0.00,,,0.00,Wunderground v.1.15,2013-06-20 16:45:00,
2013-06-20 12:47:00,86.1,76.0,30.07,WSW,246,5.0,8.0,72,0.00,,,0.00,Wunderground v.1.15,2013-06-20 16:47:00,
2013-06-20 12:48:00,86.0,75.9,30.07,West,277,5.0,8.0,72,0.00,,,0.00,Wunderground v.1.15,2013-06-20 16:48:00,
2013-06-20 12:53:00,86.2,76.5,30.06,NW,315,5.0,8.0,73,0.00,,,0.00,Wunderground v.1.15,2013-06-20 16:53:00,
2013-06-20 12:55:00,86.2,76.5,30.06,WNW,300,4.0,8.0,73,0.00,,,0.00,Wunderground v.1.15,2013-06-20 16:55:00,
2013-06-20 12:57:00,86.1,75.6,30.07,WNW,288,4.0,8.0,71,0.00,,,0.00,Wunderground v.1.15,2013-06-20 16:57:00,
2013-06-20 12:59:00,86.1,75.6,30.07,West,278,4.0,8.0,71,0.00,,,0.00,Wunderground v.1.15,2013-06-20 16:59:00,
2013-06-20 13:01:00,86.2,76.5,30.07,West,274,4.0,4.0,73,0.00,,,0.00,Wunderground v.1.15,2013-06-20 17:01:00,
2013-06-20 13:03:00,86.2,76.5,30.07,West,259,4.0,5.0,73,0.00,,,0.00,Wunderground v.1.15,2013-06-20 17:03:00,
2013-06-20 13:05:00,86.3,76.6,30.06,West,261,4.0,5.0,73,0.00,,,0.00,Wunderground v.1.15,2013-06-20 17:05:00,
2013-06-20 13:06:00,86.3,76.2,30.07,West,263,4.0,5.0,72,0.00,,,0.00,Wunderground v.1.15,2013-06-20 17:06:00,
2013-06-20 13:08:00,86.2,76.5,30.06,West,271,4.0,6.0,73,0.00,,,0.00,Wunderground v.1.15,2013-06-20 17:08:00,
2013-06-20 13:09:00,86.1,76.8,30.06,West,278,4.0,6.0,74,0.00,,,0.00,Wunderground v.1.15,2013-06-20 17:09:00,
2013-06-20 13:11:00,86.2,77.7,30.06,WSW,238,4.0,8.0,76,0.00,,,0.00,Wunderground v.1.15,2013-06-20 17:11:00,
2013-06-20 13:14:00,86.2,78.5,30.06,West,259,5.0,8.0,78,0.00,,,0.00,Wunderground v.1.15,2013-06-20 17:14:00,
2013-06-20 13:16:00,86.3,78.2,30.06,West,263,4.0,8.0,77,0.00,,,0.00,Wunderground v.1.15,2013-06-20 17:16:00,
2013-06-20 13:18:00,86.1,78.4,30.06,West,260,4.0,8.0,78,0.00,,,0.00,Wunderground v.1.15,2013-06-20 17:18:00,
2013-06-20 13:22:00,85.9,78.6,30.06,WSW,238,4.0,6.0,79,0.00,,,0.00,Wunderground v.1.15,2013-06-20 17:22:00,
2013-06-20 13:23:00,85.9,78.6,30.06,SW,222,4.0,6.0,79,0.00,,,0.00,Wunderground v.1.15,2013-06-20 17:23:00,
2013-06-20 13:24:00,85.9,78.6,30.06,SW,226,4.0,6.0,79,0.00,,,0.00,Wunderground v.1.15,2013-06-20 17:24:00,
2013-06-20 13:25:00,85.9,78.6,30.06,SSW,210,4.0,6.0,79,0.00,,,0.00,Wunderground v.1.15,2013-06-20 17:25:00,
2013-06-20 13:26:00,85.9,78.6,30.06,WSW,246,7.0,7.0,79,0.00,,,0.00,Wunderground v.1.15,2013-06-20 17:26:00,
2013-06-20 13:27:00,85.8,78.5,30.06,WNW,283,5.0,7.0,79,0.00,,,0.00,Wunderground v.1.15,2013-06-20 17:27:00,
2013-06-20 13:28:00,85.8,78.9,30.06,West,259,4.0,7.0,80,0.00,,,0.00,Wunderground v.1.15,2013-06-20 17:28:00,
2013-06-20 16:08:00,86.3,76.6,30.02,WSW,252,5.0,5.0,73,0.00,,,0.00,Wunderground v.1.15,2013-06-20 20:08:00,
2013-06-20 16:09:00,86.3,76.6,30.02,West,280,4.0,5.0,73,0.00,,,0.00,Wunderground v.1.15,2013-06-20 20:09:00,
2013-06-20 16:13:00,86.6,76.9,30.02,West,271,6.0,9.0,73,0.00,,,0.00,Wunderground v.1.15,2013-06-20 20:13:00,
2013-06-20 16:14:00,86.6,76.9,30.02,WNW,283,4.0,9.0,73,0.00,,,0.00,Wunderground v.1.15,2013-06-20 20:14:00,
2013-06-20 16:15:00,86.5,76.8,30.02,SW,225,6.0,9.0,73,0.00,,,0.00,Wunderground v.1.15,2013-06-20 20:15:00,
2013-06-20 16:18:00,86.5,76.8,30.02,WSW,257,1.0,6.0,73,0.00,,,0.00,Wunderground v.1.15,2013-06-20 20:18:00,
2013-06-20 16:19:00,86.5,76.8,30.02,WNW,293,3.0,6.0,73,0.00,,,0.00,Wunderground v.1.15,2013-06-20 20:19:00,
2013-06-20 16:20:00,86.4,76.3,30.02,WSW,247,3.0,6.0,72,0.00,,,0.00,Wunderground v.1.15,2013-06-20 20:20:00,
2013-06-20 16:23:00,86.6,76.1,30.03,WSW,256,4.0,8.0,71,0.00,,,0.00,Wunderground v.1.15,2013-06-20 20:23:00,
2013-06-20 16:24:00,86.6,75.6,30.03,WSW,242,5.0,8.0,70,0.00,,,0.00,Wunderground v.1.15,2013-06-20 20:24:00,
2013-06-20 16:25:00,86.6,75.6,30.03,WNW,284,2.0,8.0,70,0.00,,,0.00,Wunderground v.1.15,2013-06-20 20:25:00,
2013-06-20 16:28:00,86.8,74.5,30.03,SW,228,3.0,6.0,67,0.00,,,0.00,Wunderground v.1.15,2013-06-20 20:28:00,
2013-06-20 16:29:00,86.8,74.5,30.03,West,263,1.0,6.0,67,0.00,,,0.00,Wunderground v.1.15,2013-06-20 20:29:00,
2013-06-20 16:30:00,87.1,76.1,30.03,WSW,250,3.0,7.0,70,0.00,,,0.00,Wunderground v.1.15,2013-06-20 20:30:00,
2013-06-20 16:33:00,87.5,76.5,30.02,SW,235,3.0,8.0,70,0.00,,,0.00,Wunderground v.1.15,2013-06-20 20:33:00,
2013-06-20 16:34:00,87.5,76.5,30.02,SW,233,6.0,8.0,70,0.00,,,0.00,Wunderground v.1.15,2013-06-20 20:34:00,
2013-06-20 16:35:00,87.6,76.2,30.02,WNW,285,4.0,8.0,69,0.00,,,0.00,Wunderground v.1.15,2013-06-20 20:35:00,
2013-06-20 16:36:00,87.6,75.7,30.02,SW,226,5.0,8.0,68,0.00,,,0.00,Wunderground v.1.15,2013-06-20 20:36:00,
2013-06-20 16:39:00,87.9,75.6,30.02,WSW,255,4.0,7.0,67,0.00,,,0.00,Wunderground v.1.15,2013-06-20 20:39:00,
2013-06-20 16:40:00,87.9,76.0,30.02,WNW,288,2.0,7.0,68,0.00,,,0.00,Wunderground v.1.15,2013-06-20 20:40:00,
2013-06-20 16:41:00,88.1,76.2,30.02,West,265,2.0,7.0,68,0.00,,,0.00,Wunderground v.1.15,2013-06-20 20:41:00,
2013-06-20 16:44:00,88.3,75.9,30.02,West,266,7.0,8.0,67,0.00,,,0.00,Wunderground v.1.15,2013-06-20 20:44:00,
2013-06-20 16:45:00,88.3,75.5,30.02,SW,226,6.0,9.0,66,0.00,,,0.00,Wunderground v.1.15,2013-06-20 20:45:00,
2013-06-20 16:46:00,88.2,74.5,30.02,WSW,238,5.0,9.0,64,0.00,,,0.00,Wunderground v.1.15,2013-06-20 20:46:00,
2013-06-20 16:49:00,87.9,75.1,30.02,SW,221,7.0,11.0,66,0.00,,,0.00,Wunderground v.1.15,2013-06-20 20:49:00,
2013-06-20 16:50:00,87.8,74.6,30.02,WSW,248,8.0,11.0,65,0.00,,,0.00,Wunderground v.1.15,2013-06-20 20:50:00,
2013-06-20 16:51:00,87.7,74.9,30.02,WSW,249,4.0,11.0,66,0.00,,,0.00,Wunderground v.1.15,2013-06-20 20:51:00,
2013-06-20 16:54:00,87.9,75.1,30.02,SW,230,8.0,11.0,66,0.00,,,0.00,Wunderground v.1.15,2013-06-20 20:54:00,
2013-06-20 16:55:00,87.9,73.7,30.02,SW,217,5.0,11.0,63,0.00,,,0.00,Wunderground v.1.15,2013-06-20 20:55:00,
2013-06-20 16:56:00,88.0,73.8,30.02,WSW,245,2.0,11.0,63,0.00,,,0.00,Wunderground v.1.15,2013-06-20 20:56:00,
2013-06-20 16:59:00,88.3,75.0,30.02,WNW,284,2.0,5.0,65,0.00,,,0.00,Wunderground v.1.15,2013-06-20 20:59:00,
2013-06-20 17:00:00,88.4,75.6,30.02,West,278,4.0,8.0,66,0.00,,,0.00,Wunderground v.1.15,2013-06-20 21:00:00,
2013-06-20 17:01:00,88.3,75.5,30.02,WNW,291,4.0,8.0,66,0.00,,,0.00,Wunderground v.1.15,2013-06-20 21:01:00,
2013-06-20 17:05:00,88.2,75.9,30.02,West,269,7.0,9.0,67,0.00,,,0.00,Wunderground v.1.15,2013-06-20 21:05:00,
2013-06-20 17:06:00,88.1,75.3,30.02,WSW,245,5.0,9.0,66,0.00,,,0.00,Wunderground v.1.15,2013-06-20 21:06:00,
2013-06-20 17:07:00,88.1,74.8,30.02,WSW,245,7.0,10.0,65,0.00,,,0.00,Wunderground v.1.15,2013-06-20 21:07:00,
2013-06-20 17:10:00,87.9,76.0,30.02,WNW,290,6.0,9.0,68,0.00,,,0.00,Wunderground v.1.15,2013-06-20 21:10:00,
2013-06-20 17:11:00,87.9,75.6,30.02,West,280,3.0,9.0,67,0.00,,,0.00,Wunderground v.1.15,2013-06-20 21:11:00,
2013-06-20 17:12:00,88.0,75.7,30.02,West,269,3.0,9.0,67,0.00,,,0.00,Wunderground v.1.15,2013-06-20 21:12:00,
2013-06-20 17:15:00,88.1,75.3,30.02,WSW,257,6.0,9.0,66,0.00,,,0.00,Wunderground v.1.15,2013-06-20 21:15:00,
2013-06-20 17:16:00,88.1,74.8,30.02,WSW,247,6.0,9.0,65,0.00,,,0.00,Wunderground v.1.15,2013-06-20 21:16:00,
2013-06-20 17:17:00,88.2,75.9,30.02,West,263,1.0,9.0,67,0.00,,,0.00,Wunderground v.1.15,2013-06-20 21:17:00,
2013-06-20 17:20:00,87.7,76.3,30.02,NNW,338,3.0,6.0,69,0.00,,,0.00,Wunderground v.1.15,2013-06-20 21:20:00,
2013-06-20 17:21:00,87.7,76.3,30.02,NW,309,3.0,6.0,69,0.00,,,0.00,Wunderground v.1.15,2013-06-20 21:21:00,
2013-06-20 17:22:00,87.6,76.2,30.02,NNE,25,5.0,6.0,69,0.00,,,0.00,Wunderground v.1.15,2013-06-20 21:22:00,
2013-06-20 17:23:00,87.7,77.1,30.02,WNW,285,1.0,6.0,71,0.00,,,0.00,Wunderground v.1.15,2013-06-20 21:23:00,
2013-06-20 17:25:00,87.8,75.0,30.03,West,265,6.0,7.0,66,0.00,,,0.00,Wunderground v.1.15,2013-06-20 21:25:00,
2013-06-20 17:26:00,87.7,74.9,30.03,WSW,253,4.0,7.0,66,0.00,,,0.00,Wunderground v.1.15,2013-06-20 21:26:00,
2013-06-20 17:27:00,87.5,75.2,30.03,WSW,254,7.0,7.0,67,0.00,,,0.00,Wunderground v.1.15,2013-06-20 21:27:00,
2013-06-20 17:28:00,87.4,75.5,30.03,WSW,252,5.0,7.0,68,0.00,,,0.00,Wunderground v.1.15,2013-06-20 21:28:00,
2013-06-20 17:31:00,87.0,75.2,30.02,NW,325,5.0,8.0,68,0.00,,,0.00,Wunderground v.1.15,2013-06-20 21:31:00,
2013-06-20 17:32:00,86.9,76.4,30.02,West,270,3.0,8.0,71,0.00,,,0.00,Wunderground v.1.15,2013-06-20 21:32:00,
2013-06-20 17:34:00,87.0,75.2,30.02,NNW,331,3.0,8.0,68,0.00,,,0.00,Wunderground v.1.15,2013-06-20 21:34:00,
2013-06-20 17:36:00,87.1,75.3,30.02,WNW,295,5.0,8.0,68,0.00,,,0.00,Wunderground v.1.15,2013-06-20 21:36:00,
2013-06-20 17:37:00,87.1,75.7,30.02,West,265,2.0,8.0,69,0.00,,,0.00,Wunderground v.1.15,2013-06-20 21:37:00,
2013-06-20 17:39:00,87.2,76.2,30.02,WNW,289,3.0,8.0,70,0.00,,,0.00,Wunderground v.1.15,2013-06-20 21:39:00,
2013-06-20 17:41:00,87.3,76.3,30.02,WNW,283,3.0,7.0,70,0.00,,,0.00,Wunderground v.1.15,2013-06-20 21:41:00,
2013-06-20 17:42:00,87.3,76.3,30.02,West,264,2.0,7.0,70,0.00,,,0.00,Wunderground v.1.15,2013-06-20 21:42:00,
2013-06-20 17:43:00,87.5,76.5,30.02,West,260,4.0,7.0,70,0.00,,,0.00,Wunderground v.1.15,2013-06-20 21:43:00,
2013-06-20 17:45:00,87.5,75.6,30.02,West,280,5.0,7.0,68,0.00,,,0.00,Wunderground v.1.15,2013-06-20 21:45:00,
2013-06-20 17:46:00,87.6,75.7,30.02,WNW,287,2.0,7.0,68,0.00,,,0.00,Wunderground v.1.15,2013-06-20 21:46:00,
2013-06-20 17:47:00,87.6,75.7,30.02,WNW,298,5.0,7.0,68,0.00,,,0.00,Wunderground v.1.15,2013-06-20 21:47:00,
2013-06-20 17:48:00,87.7,75.8,30.02,West,262,3.0,7.0,68,0.00,,,0.00,Wunderground v.1.15,2013-06-20 21:48:00,
2013-06-20 17:50:00,87.8,76.4,30.02,NW,319,4.0,4.0,69,0.00,,,0.00,Wunderground v.1.15,2013-06-20 21:50:00,
2013-06-20 17:51:00,87.9,75.6,30.02,NNW,340,4.0,6.0,67,0.00,,,0.00,Wunderground v.1.15,2013-06-20 21:51:00,
2013-06-20 17:52:00,87.9,75.6,30.02,NW,326,3.0,6.0,67,0.00,,,0.00,Wunderground v.1.15,2013-06-20 21:52:00,
2013-06-20 17:53:00,87.9,75.1,30.02,WSW,242,3.0,6.0,66,0.00,,,0.00,Wunderground v.1.15,2013-06-20 21:53:00,
2013-06-20 17:55:00,88.0,75.2,30.02,SW,224,3.0,6.0,66,0.00,,,0.00,Wunderground v.1.15,2013-06-20 21:55:00,
2013-06-20 17:56:00,88.2,75.9,30.02,WSW,237,5.0,6.0,67,0.00,,,0.00,Wunderground v.1.15,2013-06-20 21:56:00,
2013-06-20 17:57:00,88.3,75.9,30.02,West,281,4.0,7.0,67,0.00,,,0.00,Wunderground v.1.15,2013-06-20 21:57:00,
2013-06-20 17:58:00,88.4,76.5,30.02,WSW,248,7.0,7.0,68,0.00,,,0.00,Wunderground v.1.15,2013-06-20 21:58:00,
2013-06-20 18:00:00,88.1,76.6,30.02,WNW,289,4.0,4.0,69,0.00,,,0.00,Wunderground v.1.15,2013-06-20 22:00:00,
2013-06-20 18:01:00,87.9,76.5,30.02,West,278,4.0,8.0,69,0.00,,,0.00,Wunderground v.1.15,2013-06-20 22:01:00,
2013-06-20 18:02:00,87.8,76.4,30.02,WNW,283,2.0,8.0,69,0.00,,,0.00,Wunderground v.1.15,2013-06-20 22:02:00,
2013-06-20 18:03:00,87.7,76.7,30.02,WNW,288,6.0,8.0,70,0.00,,,0.00,Wunderground v.1.15,2013-06-20 22:03:00,
2013-06-20 18:05:00,87.7,76.7,30.02,NW,304,3.0,8.0,70,0.00,,,0.00,Wunderground v.1.15,2013-06-20 22:05:00,
2013-06-20 18:07:00,87.8,75.9,30.02,West,276,5.0,8.0,68,0.00,,,0.00,Wunderground v.1.15,2013-06-20 22:07:00,
2013-06-20 18:08:00,87.7,75.8,30.01,WSW,255,3.0,8.0,68,0.00,,,0.00,Wunderground v.1.15,2013-06-20 22:08:00,
2013-06-20 18:10:00,87.8,75.9,30.01,West,263,5.0,5.0,68,0.00,,,0.00,Wunderground v.1.15,2013-06-20 22:10:00,
2013-06-20 18:12:00,87.8,75.9,30.01,SSW,210,4.0,5.0,68,0.00,,,0.00,Wunderground v.1.15,2013-06-20 22:12:00,
2013-06-20 18:13:00,87.8,76.4,30.01,West,281,4.0,8.0,69,0.00,,,0.00,Wunderground v.1.15,2013-06-20 22:13:00,
2013-06-20 18:15:00,87.7,76.3,30.01,NW,307,2.0,8.0,69,0.00,,,0.00,Wunderground v.1.15,2013-06-20 22:15:00,
2013-06-20 18:17:00,87.6,77.0,30.01,NNW,330,4.0,8.0,71,0.00,,,0.00,Wunderground v.1.15,2013-06-20 22:17:00,
2013-06-20 18:18:00,87.5,76.9,30.01,West,281,2.0,8.0,71,0.00,,,0.00,Wunderground v.1.15,2013-06-20 22:18:00,
2013-06-20 18:20:00,87.6,77.0,30.01,WNW,285,5.0,6.0,71,0.00,,,0.00,Wunderground v.1.15,2013-06-20 22:20:00,
2013-06-20 18:22:00,87.6,76.2,30.01,WSW,242,1.0,6.0,69,0.00,,,0.00,Wunderground v.1.15,2013-06-20 22:22:00,
2013-06-20 18:23:00,87.6,76.6,30.01,West,277,7.0,7.0,70,0.00,,,0.00,Wunderground v.1.15,2013-06-20 22:23:00,
2013-06-20 18:24:00,87.7,76.3,30.01,West,259,6.0,8.0,69,0.00,,,0.00,Wunderground v.1.15,2013-06-20 22:24:00,
2013-06-20 18:25:00,87.6,76.2,30.01,WSW,243,3.0,8.0,69,0.00,,,0.00,Wunderground v.1.15,2013-06-20 22:25:00,
2013-06-20 18:28:00,87.7,76.3,30.01,WSW,255,4.0,8.0,69,0.00,,,0.00,Wunderground v.1.15,2013-06-20 22:28:00,
2013-06-20 18:29:00,87.6,76.2,30.01,WNW,290,3.0,8.0,69,0.00,,,0.00,Wunderground v.1.15,2013-06-20 22:29:00,
2013-06-20 18:30:00,87.6,76.6,30.01,WNW,283,4.0,4.0,70,0.00,,,0.00,Wunderground v.1.15,2013-06-20 22:30:00,
2013-06-20 18:33:00,87.6,76.6,30.01,WSW,250,1.0,7.0,70,0.00,,,0.00,Wunderground v.1.15,2013-06-20 22:33:00,
2013-06-20 18:34:00,87.6,76.6,30.01,WNW,288,6.0,7.0,70,0.00,,,0.00,Wunderground v.1.15,2013-06-20 22:34:00,
2013-06-20 18:36:00,87.5,76.5,30.02,West,264,3.0,7.0,70,0.00,,,0.00,Wunderground v.1.15,2013-06-20 22:36:00,
2013-06-20 18:38:00,87.5,76.1,30.02,WSW,253,5.0,7.0,69,0.00,,,0.00,Wunderground v.1.15,2013-06-20 22:38:00,
2013-06-20 18:39:00,87.5,76.1,30.02,WNW,283,6.0,7.0,69,0.00,,,0.00,Wunderground v.1.15,2013-06-20 22:39:00,
2013-06-20 18:40:00,87.5,76.1,30.02,SW,235,4.0,4.0,69,0.00,,,0.00,Wunderground v.1.15,2013-06-20 22:40:00,
2013-06-20 18:41:00,87.5,76.1,30.02,West,273,3.0,7.0,69,0.00,,,0.00,Wunderground v.1.15,2013-06-20 22:41:00,
2013-06-20 18:43:00,87.5,76.1,30.02,WNW,291,4.0,7.0,69,0.00,,,0.00,Wunderground v.1.15,2013-06-20 22:43:00,
2013-06-20 18:44:00,87.5,76.1,30.02,WNW,287,5.0,7.0,69,0.00,,,0.00,Wunderground v.1.15,2013-06-20 22:44:00,
2013-06-20 18:45:00,87.6,76.2,30.02,West,267,3.0,7.0,69,0.00,,,0.00,Wunderground v.1.15,2013-06-20 22:45:00,
2013-06-20 18:46:00,87.6,76.6,30.02,West,267,3.0,7.0,70,0.00,,,0.00,Wunderground v.1.15,2013-06-20 22:46:00,
2013-06-20 18:48:00,87.6,76.2,30.02,WNW,288,3.0,7.0,69,0.00,,,0.00,Wunderground v.1.15,2013-06-20 22:48:00,
2013-06-20 18:49:00,87.6,76.2,30.02,NW,312,3.0,7.0,69,0.00,,,0.00,Wunderground v.1.15,2013-06-20 22:49:00,
2013-06-20 18:50:00,87.5,76.1,30.02,West,280,6.0,6.0,69,0.00,,,0.00,Wunderground v.1.15,2013-06-20 22:50:00,
2013-06-20 18:51:00,87.4,76.0,30.02,West,270,2.0,6.0,69,0.00,,,0.00,Wunderground v.1.15,2013-06-20 22:51:00,
2013-06-20 18:53:00,87.3,75.9,30.02,WNW,300,2.0,6.0,69,0.00,,,0.00,Wunderground v.1.15,2013-06-20 22:53:00,
2013-06-20 18:54:00,87.3,75.9,30.02,West,280,2.0,6.0,69,0.00,,,0.00,Wunderground v.1.15,2013-06-20 22:54:00,
2013-06-20 18:55:00,87.4,76.4,30.02,WNW,289,1.0,6.0,70,0.00,,,0.00,Wunderground v.1.15,2013-06-20 22:55:00,
2013-06-20 18:56:00,87.4,76.4,30.02,West,264,3.0,6.0,70,0.00,,,0.00,Wunderground v.1.15,2013-06-20 22:56:00,
2013-06-20 18:58:00,87.7,76.7,30.03,West,277,2.0,6.0,70,0.00,,,0.00,Wunderground v.1.15,2013-06-20 22:58:00,
2013-06-20 18:59:00,87.7,76.7,30.03,WNW,285,2.0,6.0,70,0.00,,,0.00,Wunderground v.1.15,2013-06-20 22:59:00,
2013-06-20 19:00:00,87.8,76.4,30.03,SW,227,1.0,3.0,69,0.00,,,0.00,Wunderground v.1.15,2013-06-20 23:00:00,
2013-06-20 19:01:00,87.9,76.5,30.03,West,269,1.0,3.0,69,0.00,,,0.00,Wunderground v.1.15,2013-06-20 23:01:00,
2013-06-20 19:03:00,87.9,75.6,30.03,West,263,1.0,5.0,67,0.00,,,0.00,Wunderground v.1.15,2013-06-20 23:03:00,
2013-06-20 19:04:00,87.9,75.6,30.03,West,269,2.0,6.0,67,0.00,,,0.00,Wunderground v.1.15,2013-06-20 23:04:00,
2013-06-20 19:06:00,87.9,76.0,30.03,WNW,297,4.0,6.0,68,0.00,,,0.00,Wunderground v.1.15,2013-06-20 23:06:00,
2013-06-20 19:08:00,87.8,75.9,30.03,SW,235,3.0,6.0,68,0.00,,,0.00,Wunderground v.1.15,2013-06-20 23:08:00,
2013-06-20 19:10:00,87.7,75.4,30.03,WSW,252,2.0,3.0,67,0.00,,,0.00,Wunderground v.1.15,2013-06-20 23:10:00,
2013-06-20 19:11:00,87.7,75.4,30.03,NW,312,4.0,4.0,67,0.00,,,0.00,Wunderground v.1.15,2013-06-20 23:11:00,
2013-06-20 19:14:00,87.5,76.1,30.03,SSW,205,0.0,6.0,69,0.00,,,0.00,Wunderground v.1.15,2013-06-20 23:14:00,
2013-06-20 19:15:00,87.6,76.2,30.03,WSW,256,0.0,6.0,69,0.00,,,0.00,Wunderground v.1.15,2013-06-20 23:15:00,
2013-06-20 19:16:00,87.6,75.7,30.03,West,281,3.0,6.0,68,0.00,,,0.00,Wunderground v.1.15,2013-06-20 23:16:00,
2013-06-20 19:17:00,87.6,75.7,30.03,West,265,4.0,6.0,68,0.00,,,0.00,Wunderground v.1.15,2013-06-20 23:17:00,
2013-06-20 19:19:00,87.5,76.1,30.03,WNW,287,3.0,6.0,69,0.00,,,0.00,Wunderground v.1.15,2013-06-20 23:19:00,
2013-06-20 19:20:00,87.4,76.0,30.03,NW,312,1.0,3.0,69,0.00,,,0.00,Wunderground v.1.15,2013-06-20 23:20:00,
2013-06-20 19:21:00,87.4,76.0,30.03,WNW,298,1.0,3.0,69,0.00,,,0.00,Wunderground v.1.15,2013-06-20 23:21:00,
2013-06-20 19:22:00,87.5,76.1,30.03,NW,312,1.0,3.0,69,0.00,,,0.00,Wunderground v.1.15,2013-06-20 23:22:00,
2013-06-20 19:25:00,87.5,76.1,30.03,WNW,295,2.0,4.0,69,0.00,,,0.00,Wunderground v.1.15,2013-06-20 23:25:00,
2013-06-20 19:26:00,87.5,75.6,30.03,WNW,297,5.0,5.0,68,0.00,,,0.00,Wunderground v.1.15,2013-06-20 23:26:00,
2013-06-20 19:27:00,87.5,75.6,30.03,WNW,293,5.0,5.0,68,0.00,,,0.00,Wunderground v.1.15,2013-06-20 23:27:00,
2013-06-20 19:30:00,87.4,76.0,30.04,WNW,283,3.0,3.0,69,0.00,,,0.00,Wunderground v.1.15,2013-06-20 23:30:00,
2013-06-20 19:31:00,87.4,75.5,30.04,WNW,294,2.0,5.0,68,0.00,,,0.00,Wunderground v.1.15,2013-06-20 23:31:00,
2013-06-20 19:32:00,87.4,75.5,30.03,WNW,287,2.0,5.0,68,0.00,,,0.00,Wunderground v.1.15,2013-06-20 23:32:00,
2013-06-20 19:35:00,87.4,75.5,30.04,NNW,333,1.0,5.0,68,0.00,,,0.00,Wunderground v.1.15,2013-06-20 23:35:00,
2013-06-20 19:36:00,87.5,75.6,30.04,WNW,299,0.0,5.0,68,0.00,,,0.00,Wunderground v.1.15,2013-06-20 23:36:00,
2013-06-20 19:37:00,87.6,75.7,30.03,WNW,299,0.0,5.0,68,0.00,,,0.00,Wunderground v.1.15,2013-06-20 23:37:00,
2013-06-20 19:40:00,87.6,74.8,30.04,NW,312,3.0,4.0,66,0.00,,,0.00,Wunderground v.1.15,2013-06-20 23:40:00,
2013-06-20 19:41:00,87.5,74.7,30.04,NW,314,1.0,4.0,66,0.00,,,0.00,Wunderground v.1.15,2013-06-20 23:41:00,
2013-06-20 19:42:00,87.5,74.7,30.04,NW,315,0.0,4.0,66,0.00,,,0.00,Wunderground v.1.15,2013-06-20 23:42:00,
2013-06-20 19:43:00,87.4,75.1,30.04,NW,323,0.0,4.0,67,0.00,,,0.00,Wunderground v.1.15,2013-06-20 23:43:00,
2013-06-20 19:45:00,87.5,74.7,30.04,West,259,0.0,4.0,66,0.00,,,0.00,Wunderground v.1.15,2013-06-20 23:45:00,
2013-06-20 19:46:00,87.8,75.0,30.04,West,263,0.0,4.0,66,0.00,,,0.00,Wunderground v.1.15,2013-06-20 23:46:00,
2013-06-20 19:47:00,87.8,75.0,30.04,West,263,0.0,4.0,66,0.00,,,0.00,Wunderground v.1.15,2013-06-20 23:47:00,
2013-06-20 19:48:00,87.9,75.1,30.04,NE,44,0.0,4.0,66,0.00,,,0.00,Wunderground v.1.15,2013-06-20 23:48:00,
2013-06-20 19:50:00,87.8,75.5,30.04,ENE,72,6.0,7.0,67,0.00,,,0.00,Wunderground v.1.15,2013-06-20 23:50:00,
2013-06-20 19:51:00,87.6,75.7,30.04,East,89,5.0,7.0,68,0.00,,,0.00,Wunderground v.1.15,2013-06-20 23:51:00,
2013-06-20 19:52:00,87.4,75.5,30.04,ENE,78,6.0,7.0,68,0.00,,,0.00,Wunderground v.1.15,2013-06-20 23:52:00,
2013-06-20 19:53:00,87.2,75.3,30.04,East,89,4.0,8.0,68,0.00,,,0.00,Wunderground v.1.15,2013-06-20 23:53:00,
2013-06-20 19:55:00,86.8,75.4,30.04,ESE,104,3.0,8.0,69,0.00,,,0.00,Wunderground v.1.15,2013-06-20 23:55:00,
2013-06-20 19:56:00,86.6,75.2,30.04,ENE,71,4.0,8.0,69,0.00,,,0.00,Wunderground v.1.15,2013-06-20 23:56:00,
2013-06-20 19:57:00,86.5,75.1,30.05,East,82,4.0,8.0,69,0.00,,,0.00,Wunderground v.1.15,2013-06-20 23:57:00,
2013-06-20 19:58:00,86.5,75.5,30.05,ENE,75,5.0,8.0,70,0.00,,,0.00,Wunderground v.1.15,2013-06-20 23:58:00,
2013-06-20 20:00:00,86.1,75.2,30.05,East,91,6.0,9.0,70,0.00,,,0.00,Wunderground v.1.15,2013-06-21 00:00:00,
2013-06-20 20:01:00,85.8,75.3,30.05,ENE,72,4.0,9.0,71,0.00,,,0.00,Wunderground v.1.15,2013-06-21 00:01:00,
2013-06-20 20:02:00,85.7,75.2,30.05,ENE,78,7.0,9.0,71,0.00,,,0.00,Wunderground v.1.15,2013-06-21 00:02:00,
2013-06-20 20:03:00,85.7,75.2,30.05,ENE,76,8.0,9.0,71,0.00,,,0.00,Wunderground v.1.15,2013-06-21 00:03:00,
2013-06-20 20:05:00,85.2,75.1,30.04,East,96,4.0,9.0,72,0.00,,,0.00,Wunderground v.1.15,2013-06-21 00:05:00,
2013-06-20 20:07:00,85.1,75.1,30.04,East,91,4.0,9.0,72,0.00,,,0.00,Wunderground v.1.15,2013-06-21 00:07:00,
2013-06-20 20:08:00,85.0,75.4,30.04,ENE,71,3.0,9.0,73,0.00,,,0.00,Wunderground v.1.15,2013-06-21 00:08:00,
2013-06-20 20:09:00,84.9,75.3,30.04,ENE,60,2.0,9.0,73,0.00,,,0.00,Wunderground v.1.15,2013-06-21 00:09:00,
2013-06-20 20:10:00,84.8,75.2,30.04,SE,133,1.0,5.0,73,0.00,,,0.00,Wunderground v.1.15,2013-06-21 00:10:00,
2013-06-20 20:12:00,84.7,75.1,30.05,ENE,75,3.0,5.0,73,0.00,,,0.00,Wunderground v.1.15,2013-06-21 00:12:00,
2013-06-20 20:13:00,84.6,75.0,30.04,East,101,2.0,5.0,73,0.00,,,0.00,Wunderground v.1.15,2013-06-21 00:13:00,
2013-06-20 20:14:00,84.5,74.9,30.04,East,89,1.0,5.0,73,0.00,,,0.00,Wunderground v.1.15,2013-06-21 00:14:00,
2013-06-20 20:15:00,84.4,74.8,30.04,ESE,106,4.0,5.0,73,0.00,,,0.00,Wunderground v.1.15,2013-06-21 00:15:00,
2013-06-20 20:17:00,84.3,74.3,30.04,SE,124,1.0,5.0,72,0.00,,,0.00,Wunderground v.1.15,2013-06-21 00:17:00,
2013-06-20 20:18:00,84.2,73.8,30.04,East,87,2.0,5.0,71,0.00,,,0.00,Wunderground v.1.15,2013-06-21 00:18:00,
2013-06-20 20:20:00,84.1,74.1,30.04,ENE,68,2.0,3.0,72,0.00,,,0.00,Wunderground v.1.15,2013-06-21 00:20:00,
2013-06-20 20:22:00,84.0,74.0,30.04,East,82,3.0,3.0,72,0.00,,,0.00,Wunderground v.1.15,2013-06-21 00:22:00,
2013-06-20 20:23:00,84.0,73.6,30.04,ENE,67,2.0,4.0,71,0.00,,,0.00,Wunderground v.1.15,2013-06-21 00:23:00,
2013-06-20 20:26:00,83.9,73.9,30.04,East,93,1.0,4.0,72,0.00,,,0.00,Wunderground v.1.15,2013-06-21 00:26:00,
2013-06-20 20:27:00,83.9,73.9,30.04,East,82,3.0,4.0,72,0.00,,,0.00,Wunderground v.1.15,2013-06-21 00:27:00,
2013-06-20 20:29:00,83.9,73.9,30.04,ENE,72,4.0,4.0,72,0.00,,,0.00,Wunderground v.1.15,2013-06-21 00:29:00,
2013-06-20 20:31:00,83.8,74.2,30.04,East,85,1.0,4.0,73,0.00,,,0.00,Wunderground v.1.15,2013-06-21 00:31:00,
2013-06-20 20:33:00,83.7,74.1,30.04,ENE,69,2.0,4.0,73,0.00,,,0.00,Wunderground v.1.15,2013-06-21 00:33:00,
2013-06-20 20:34:00,83.7,74.1,30.04,East,87,2.0,4.0,73,0.00,,,0.00,Wunderground v.1.15,2013-06-21 00:34:00,
2013-06-20 20:36:00,83.6,74.0,30.05,East,98,2.0,5.0,73,0.00,,,0.00,Wunderground v.1.15,2013-06-21 00:36:00,
2013-06-20 20:38:00,83.5,74.3,30.05,East,91,5.0,6.0,74,0.00,,,0.00,Wunderground v.1.15,2013-06-21 00:38:00,
2013-06-20 20:39:00,83.4,74.2,30.05,SE,135,4.0,7.0,74,0.00,,,0.00,Wunderground v.1.15,2013-06-21 00:39:00,
2013-06-20 20:41:00,83.2,74.4,30.05,ENE,77,8.0,8.0,75,0.00,,,0.00,Wunderground v.1.15,2013-06-21 00:41:00,
2013-06-20 20:43:00,82.8,74.1,30.05,East,94,6.0,10.0,75,0.00,,,0.00,Wunderground v.1.15,2013-06-21 00:43:00,
2013-06-20 20:44:00,82.8,74.1,30.05,East,84,4.0,10.0,75,0.00,,,0.00,Wunderground v.1.15,2013-06-21 00:44:00,
2013-06-20 20:46:00,82.4,74.1,30.05,ENE,60,6.0,10.0,76,0.00,,,0.00,Wunderground v.1.15,2013-06-21 00:46:00,
2013-06-20 20:49:00,82.1,73.8,30.05,NE,56,5.0,11.0,76,0.00,,,0.00,Wunderground v.1.15,2013-06-21 00:49:00,
2013-06-20 20:51:00,81.7,73.4,30.05,ENE,75,5.0,9.0,76,0.00,,,0.00,Wunderground v.1.15,2013-06-21 00:51:00,
2013-06-20 20:54:00,81.4,73.5,30.05,ENE,68,7.0,9.0,77,0.00,,,0.00,Wunderground v.1.15,2013-06-21 00:54:00,
2013-06-20 20:55:00,81.3,73.0,30.05,NE,54,9.0,9.0,76,0.00,,,0.00,Wunderground v.1.15,2013-06-21 00:55:00,
2013-06-20 20:56:00,81.1,72.8,30.05,ENE,62,4.0,9.0,76,0.00,,,0.00,Wunderground v.1.15,2013-06-21 00:56:00,
2013-06-20 20:57:00,81.1,72.8,30.05,ENE,61,6.0,9.0,76,0.00,,,0.00,Wunderground v.1.15,2013-06-21 00:57:00,
2013-06-20 20:59:00,80.9,72.6,30.05,East,82,8.0,10.0,76,0.00,,,0.00,Wunderground v.1.15,2013-06-21 00:59:00,
2013-06-20 21:01:00,80.7,72.4,30.06,NE,56,9.0,10.0,76,0.00,,,0.00,Wunderground v.1.15,2013-06-21 01:01:00,
2013-06-20 21:02:00,80.6,72.3,30.06,NE,47,4.0,10.0,76,0.00,,,0.00,Wunderground v.1.15,2013-06-21 01:02:00,
2013-06-20 21:04:00,80.4,72.5,30.06,East,81,5.0,10.0,77,0.00,,,0.00,Wunderground v.1.15,2013-06-21 01:04:00,
2013-06-20 21:06:00,80.3,72.8,30.06,ENE,58,8.0,10.0,78,0.00,,,0.00,Wunderground v.1.15,2013-06-21 01:06:00,
2013-06-20 21:07:00,80.3,72.8,30.06,ENE,77,8.0,10.0,78,0.00,,,0.00,Wunderground v.1.15,2013-06-21 01:07:00,
2013-06-20 21:09:00,80.1,72.6,30.06,ENE,62,5.0,10.0,78,0.00,,,0.00,Wunderground v.1.15,2013-06-21 01:09:00,
2013-06-20 21:11:00,80.0,72.9,30.06,ESE,122,3.0,6.0,79,0.00,,,0.00,Wunderground v.1.15,2013-06-21 01:11:00,
2013-06-20 21:12:00,80.0,72.9,30.06,East,99,2.0,6.0,79,0.00,,,0.00,Wunderground v.1.15,2013-06-21 01:12:00,
2013-06-20 21:13:00,79.9,72.8,30.06,East,97,2.0,6.0,79,0.00,,,0.00,Wunderground v.1.15,2013-06-21 01:13:00,
2013-06-20 21:14:00,79.9,72.8,30.06,ENE,67,5.0,7.0,79,0.00,,,0.00,Wunderground v.1.15,2013-06-21 01:14:00,
2013-06-20 21:15:00,79.8,72.7,30.06,ENE,58,6.0,7.0,79,0.00,,,0.00,Wunderground v.1.15,2013-06-21 01:15:00,
2013-06-20 21:16:00,79.8,72.7,30.06,ENE,67,3.0,7.0,79,0.00,,,0.00,Wunderground v.1.15,2013-06-21 01:16:00,
2013-06-20 21:17:00,79.8,72.7,30.06,NE,40,3.0,7.0,79,0.00,,,0.00,Wunderground v.1.15,2013-06-21 01:17:00,
2013-06-20 21:18:00,79.8,72.7,30.06,ENE,65,4.0,7.0,79,0.00,,,0.00,Wunderground v.1.15,2013-06-21 01:18:00,
2013-06-20 21:19:00,79.7,72.6,30.06,ENE,63,4.0,7.0,79,0.00,,,0.00,Wunderground v.1.15,2013-06-21 01:19:00,
2013-06-20 21:20:00,79.7,72.6,30.06,ENE,72,4.0,5.0,79,0.00,,,0.00,Wunderground v.1.15,2013-06-21 01:20:00,
2013-06-20 21:22:00,79.7,72.6,30.06,NE,51,3.0,5.0,79,0.00,,,0.00,Wunderground v.1.15,2013-06-21 01:22:00,
2013-06-20 21:23:00,79.7,72.6,30.05,ENE,77,3.0,5.0,79,0.00,,,0.00,Wunderground v.1.15,2013-06-21 01:23:00,
2013-06-20 21:24:00,79.7,72.6,30.06,East,79,7.0,8.0,79,0.00,,,0.00,Wunderground v.1.15,2013-06-21 01:24:00,
2013-06-20 21:26:00,79.6,72.5,30.05,ENE,70,4.0,8.0,79,0.00,,,0.00,Wunderground v.1.15,2013-06-21 01:26:00,
2013-06-20 21:27:00,79.6,72.9,30.05,ENE,68,2.0,8.0,80,0.00,,,0.00,Wunderground v.1.15,2013-06-21 01:27:00,
2013-06-20 21:28:00,79.6,72.9,30.05,ENE,73,4.0,8.0,80,0.00,,,0.00,Wunderground v.1.15,2013-06-21 01:28:00,
2013-06-20 21:29:00,79.6,72.9,30.05,ESE,109,2.0,4.0,80,0.00,,,0.00,Wunderground v.1.15,2013-06-21 01:29:00,
2013-06-20 21:31:00,79.6,72.9,30.05,ENE,68,3.0,4.0,80,0.00,,,0.00,Wunderground v.1.15,2013-06-21 01:31:00,
2013-06-20 21:32:00,79.6,72.9,30.05,ENE,65,1.0,4.0,80,0.00,,,0.00,Wunderground v.1.15,2013-06-21 01:32:00,
2013-06-20 21:33:00,79.5,72.8,30.05,ENE,69,3.0,4.0,80,0.00,,,0.00,Wunderground v.1.15,2013-06-21 01:33:00,
2013-06-20 21:34:00,79.5,72.8,30.05,ENE,65,2.0,4.0,80,0.00,,,0.00,Wunderground v.1.15,2013-06-21 01:34:00,
2013-06-20 21:35:00,79.5,72.8,30.05,ESE,117,2.0,4.0,80,0.00,,,0.00,Wunderground v.1.15,2013-06-21 01:35:00,
2013-06-20 21:36:00,79.4,72.7,30.05,East,84,4.0,6.0,80,0.00,,,0.00,Wunderground v.1.15,2013-06-21 01:36:00,
2013-06-20 21:37:00,79.4,72.7,30.05,East,100,4.0,6.0,80,0.00,,,0.00,Wunderground v.1.15,2013-06-21 01:37:00,
2013-06-20 21:38:00,79.4,73.1,30.05,NE,55,4.0,6.0,81,0.00,,,0.00,Wunderground v.1.15,2013-06-21 01:38:00,
2013-06-20 21:39:00,79.4,73.1,30.05,ENE,71,5.0,6.0,81,0.00,,,0.00,Wunderground v.1.15,2013-06-21 01:39:00,
2013-06-20 21:40:00,79.3,73.0,30.05,East,95,3.0,4.0,81,0.00,,,0.00,Wunderground v.1.15,2013-06-21 01:40:00,
2013-06-20 21:41:00,79.3,73.0,30.06,ENE,71,3.0,5.0,81,0.00,,,0.00,Wunderground v.1.15,2013-06-21 01:41:00,
2013-06-20 21:42:00,79.3,73.0,30.06,ESE,114,5.0,5.0,81,0.00,,,0.00,Wunderground v.1.15,2013-06-21 01:42:00,
2013-06-20 21:43:00,79.2,72.9,30.06,ENE,60,6.0,7.0,81,0.00,,,0.00,Wunderground v.1.15,2013-06-21 01:43:00,
2013-06-20 21:44:00,79.2,72.9,30.06,ENE,60,4.0,7.0,81,0.00,,,0.00,Wunderground v.1.15,2013-06-21 01:44:00,
2013-06-20 21:45:00,79.2,72.9,30.06,East,81,4.0,7.0,81,0.00,,,0.00,Wunderground v.1.15,2013-06-21 01:45:00,
2013-06-20 21:46:00,79.1,72.8,30.06,ENE,75,5.0,8.0,81,0.00,,,0.00,Wunderground v.1.15,2013-06-21 01:46:00,
2013-06-20 21:47:00,79.1,73.1,30.06,ENE,63,5.0,8.0,82,0.00,,,0.00,Wunderground v.1.15,2013-06-21 01:47:00,
2013-06-20 21:49:00,79.1,73.1,30.06,ENE,65,4.0,8.0,82,0.00,,,0.00,Wunderground v.1.15,2013-06-21 01:49:00,
2013-06-20 21:50:00,79.0,73.0,30.06,ENE,74,2.0,4.0,82,0.00,,,0.00,Wunderground v.1.15,2013-06-21 01:50:00,
2013-06-20 21:51:00,79.0,73.0,30.06,ESE,118,5.0,5.0,82,0.00,,,0.00,Wunderground v.1.15,2013-06-21 01:51:00,
2013-06-20 21:52:00,79.0,73.0,30.06,East,83,4.0,6.0,82,0.00,,,0.00,Wunderground v.1.15,2013-06-21 01:52:00,
2013-06-20 21:54:00,79.0,73.0,30.06,ENE,69,3.0,6.0,82,0.00,,,0.00,Wunderground v.1.15,2013-06-21 01:54:00,
2013-06-20 21:55:00,79.0,73.0,30.06,East,99,0.0,6.0,82,0.00,,,0.00,Wunderground v.1.15,2013-06-21 01:55:00,
2013-06-20 21:57:00,79.0,73.0,30.06,East,83,2.0,6.0,82,0.00,,,0.00,Wunderground v.1.15,2013-06-21 01:57:00,
2013-06-20 21:59:00,78.9,72.9,30.06,East,99,1.0,6.0,82,0.00,,,0.00,Wunderground v.1.15,2013-06-21 01:59:00,
2013-06-20 22:01:00,78.9,72.9,30.06,East,87,2.0,4.0,82,0.00,,,0.00,Wunderground v.1.15,2013-06-21 02:01:00,
2013-06-20 22:02:00,78.9,72.9,30.05,ENE,75,4.0,5.0,82,0.00,,,0.00,Wunderground v.1.15,2013-06-21 02:02:00,
2013-06-20 22:04:00,78.9,72.9,30.06,ENE,72,2.0,5.0,82,0.00,,,0.00,Wunderground v.1.15,2013-06-21 02:04:00,
2013-06-20 22:06:00,78.8,72.8,30.06,NNE,30,3.0,6.0,82,0.00,,,0.00,Wunderground v.1.15,2013-06-21 02:06:00,
2013-06-20 22:07:00,78.8,72.8,30.06,ENE,65,2.0,6.0,82,0.00,,,0.00,Wunderground v.1.15,2013-06-21 02:07:00,
2013-06-20 22:09:00,78.8,73.2,30.06,ENE,67,0.0,6.0,83,0.00,,,0.00,Wunderground v.1.15,2013-06-21 02:09:00,
2013-06-20 22:10:00,78.8,73.2,30.06,ENE,67,0.0,2.0,83,0.00,,,0.00,Wunderground v.1.15,2013-06-21 02:10:00,
2013-06-20 22:11:00,78.8,72.8,30.06,East,99,2.0,2.0,82,0.00,,,0.00,Wunderground v.1.15,2013-06-21 02:11:00,
2013-06-20 22:12:00,78.8,73.2,30.06,ESE,115,1.0,2.0,83,0.00,,,0.00,Wunderground v.1.15,2013-06-21 02:12:00,
2013-06-20 22:14:00,78.7,73.1,30.05,SE,124,1.0,3.0,83,0.00,,,0.00,Wunderground v.1.15,2013-06-21 02:14:00,
2013-06-20 22:15:00,78.7,73.1,30.05,ESE,121,1.0,3.0,83,0.00,,,0.00,Wunderground v.1.15,2013-06-21 02:15:00,
2013-06-20 22:16:00,78.7,73.1,30.05,East,83,2.0,4.0,83,0.00,,,0.00,Wunderground v.1.15,2013-06-21 02:16:00,
2013-06-20 22:17:00,78.6,73.0,30.05,NE,53,3.0,4.0,83,0.00,,,0.00,Wunderground v.1.15,2013-06-21 02:17:00,
2013-06-20 22:19:00,78.6,73.0,30.05,ENE,71,2.0,5.0,83,0.00,,,0.00,Wunderground v.1.15,2013-06-21 02:19:00,
2013-06-20 22:20:00,78.6,73.0,30.05,ENE,71,1.0,2.0,83,0.00,,,0.00,Wunderground v.1.15,2013-06-21 02:20:00,
2013-06-20 22:22:00,78.6,73.0,30.05,ENE,63,2.0,2.0,83,0.00,,,0.00,Wunderground v.1.15,2013-06-21 02:22:00,
2013-06-20 22:23:00,78.6,73.0,30.05,East,94,1.0,3.0,83,0.00,,,0.00,Wunderground v.1.15,2013-06-21 02:23:00,
2013-06-20 22:25:00,78.5,72.9,30.05,East,85,2.0,3.0,83,0.00,,,0.00,Wunderground v.1.15,2013-06-21 02:25:00,
2013-06-20 22:27:00,78.5,72.9,30.06,ENE,65,3.0,4.0,83,0.00,,,0.00,Wunderground v.1.15,2013-06-21 02:27:00,
2013-06-20 22:28:00,78.5,72.9,30.05,ENE,62,2.0,4.0,83,0.00,,,0.00,Wunderground v.1.15,2013-06-21 02:28:00,
2013-06-20 22:30:00,78.5,72.9,30.05,East,82,3.0,3.0,83,0.00,,,0.00,Wunderground v.1.15,2013-06-21 02:30:00,
2013-06-20 22:32:00,78.4,72.8,30.05,ENE,75,2.0,4.0,83,0.00,,,0.00,Wunderground v.1.15,2013-06-21 02:32:00,
2013-06-20 22:33:00,78.4,72.8,30.05,ENE,75,1.0,4.0,83,0.00,,,0.00,Wunderground v.1.15,2013-06-21 02:33:00,
2013-06-20 22:35:00,78.4,72.8,30.05,ENE,75,2.0,4.0,83,0.00,,,0.00,Wunderground v.1.15,2013-06-21 02:35:00,
2013-06-20 22:37:00,78.4,72.8,30.05,ENE,74,3.0,4.0,83,0.00,,,0.00,Wunderground v.1.15,2013-06-21 02:37:00,
2013-06-20 22:38:00,78.4,72.8,30.05,East,96,1.0,4.0,83,0.00,,,0.00,Wunderground v.1.15,2013-06-21 02:38:00,
2013-06-20 22:40:00,78.3,72.7,30.05,East,80,2.0,2.0,83,0.00,,,0.00,Wunderground v.1.15,2013-06-21 02:40:00,
2013-06-20 22:41:00,78.3,72.7,30.05,SE,134,4.0,4.0,83,0.00,,,0.00,Wunderground v.1.15,2013-06-21 02:41:00,
2013-06-20 22:42:00,78.3,72.7,30.05,East,81,3.0,5.0,83,0.00,,,0.00,Wunderground v.1.15,2013-06-21 02:42:00,
2013-06-20 22:43:00,78.3,73.1,30.05,ESE,106,3.0,5.0,84,0.00,,,0.00,Wunderground v.1.15,2013-06-21 02:43:00,
2013-06-20 22:45:00,78.2,73.0,30.05,ENE,65,4.0,5.0,84,0.00,,,0.00,Wunderground v.1.15,2013-06-21 02:45:00,
2013-06-20 22:46:00,78.2,73.0,30.05,ENE,67,3.0,5.0,84,0.00,,,0.00,Wunderground v.1.15,2013-06-21 02:46:00,
2013-06-20 22:47:00,78.2,73.0,30.05,ENE,71,2.0,5.0,84,0.00,,,0.00,Wunderground v.1.15,2013-06-21 02:47:00,
2013-06-20 22:48:00,78.2,73.0,30.05,NE,47,2.0,5.0,84,0.00,,,0.00,Wunderground v.1.15,2013-06-21 02:48:00,
2013-06-20 22:50:00,78.1,72.9,30.06,ENE,72,3.0,3.0,84,0.00,,,0.00,Wunderground v.1.15,2013-06-21 02:50:00,
2013-06-20 22:51:00,78.1,72.9,30.06,NE,47,3.0,4.0,84,0.00,,,0.00,Wunderground v.1.15,2013-06-21 02:51:00,
2013-06-20 22:52:00,78.1,72.9,30.06,ENE,62,2.0,5.0,84,0.00,,,0.00,Wunderground v.1.15,2013-06-21 02:52:00,
2013-06-20 22:53:00,78.1,72.9,30.06,ENE,63,3.0,5.0,84,0.00,,,0.00,Wunderground v.1.15,2013-06-21 02:53:00,
2013-06-20 22:55:00,78.1,72.9,30.06,ENE,66,3.0,5.0,84,0.00,,,0.00,Wunderground v.1.15,2013-06-21 02:55:00,
2013-06-20 22:56:00,78.0,72.8,30.06,ENE,60,3.0,6.0,84,0.00,,,0.00,Wunderground v.1.15,2013-06-21 02:56:00,
2013-06-20 22:58:00,78.0,72.8,30.06,ENE,71,6.0,6.0,84,0.00,,,0.00,Wunderground v.1.15,2013-06-21 02:58:00,
2013-06-20 23:00:00,77.9,72.7,30.06,ESE,104,0.0,3.0,84,0.00,,,0.00,Wunderground v.1.15,2013-06-21 03:00:00,
2013-06-20 23:01:00,77.8,72.6,30.06,ENE,73,3.0,3.0,84,0.00,,,0.00,Wunderground v.1.15,2013-06-21 03:01:00,
2013-06-20 23:03:00,77.8,72.6,30.06,East,89,2.0,5.0,84,0.00,,,0.00,Wunderground v.1.15,2013-06-21 03:03:00,
2013-06-20 23:04:00,77.8,72.6,30.06,ESE,121,1.0,5.0,84,0.00,,,0.00,Wunderground v.1.15,2013-06-21 03:04:00,
2013-06-20 23:05:00,77.7,72.5,30.06,ENE,61,4.0,5.0,84,0.00,,,0.00,Wunderground v.1.15,2013-06-21 03:05:00,
2013-06-20 23:06:00,77.7,72.5,30.06,ENE,72,2.0,5.0,84,0.00,,,0.00,Wunderground v.1.15,2013-06-21 03:06:00,
2013-06-20 23:08:00,77.7,72.5,30.06,East,79,2.0,5.0,84,0.00,,,0.00,Wunderground v.1.15,2013-06-21 03:08:00,
2013-06-20 23:09:00,77.7,72.5,30.06,East,100,3.0,5.0,84,0.00,,,0.00,Wunderground v.1.15,2013-06-21 03:09:00,
2013-06-20 23:11:00,77.7,72.8,30.06,ESE,110,1.0,4.0,85,0.00,,,0.00,Wunderground v.1.15,2013-06-21 03:11:00,
2013-06-20 23:13:00,77.6,72.7,30.06,ESE,108,1.0,4.0,85,0.00,,,0.00,Wunderground v.1.15,2013-06-21 03:13:00,
2013-06-20 23:14:00,77.6,72.7,30.06,East,91,2.0,4.0,85,0.00,,,0.00,Wunderground v.1.15,2013-06-21 03:14:00,
2013-06-20 23:16:00,77.5,72.6,30.06,ENE,65,4.0,4.0,85,0.00,,,0.00,Wunderground v.1.15,2013-06-21 03:16:00,
2013-06-20 23:18:00,77.5,72.6,30.06,ENE,72,3.0,6.0,85,0.00,,,0.00,Wunderground v.1.15,2013-06-21 03:18:00,
2013-06-20 23:19:00,77.4,72.5,30.06,East,84,6.0,6.0,85,0.00,,,0.00,Wunderground v.1.15,2013-06-21 03:19:00,
2013-06-20 23:21:00,77.3,72.4,30.06,ENE,69,3.0,4.0,85,0.00,,,0.00,Wunderground v.1.15,2013-06-21 03:21:00,
2013-06-20 23:22:00,77.3,72.4,30.06,ENE,69,3.0,4.0,85,0.00,,,0.00,Wunderground v.1.15,2013-06-21 03:22:00,
2013-06-20 23:23:00,77.3,72.8,30.06,East,84,2.0,5.0,86,0.00,,,0.00,Wunderground v.1.15,2013-06-21 03:23:00,
2013-06-20 23:24:00,77.2,72.7,30.06,East,96,1.0,5.0,86,0.00,,,0.00,Wunderground v.1.15,2013-06-21 03:24:00,
2013-06-20 23:25:00,77.2,72.7,30.06,East,96,0.0,5.0,86,0.00,,,0.00,Wunderground v.1.15,2013-06-21 03:25:00,
2013-06-20 23:26:00,77.2,72.7,30.06,East,79,2.0,5.0,86,0.00,,,0.00,Wunderground v.1.15,2013-06-21 03:26:00,
2013-06-20 23:27:00,77.2,72.7,30.06,East,79,2.0,5.0,86,0.00,,,0.00,Wunderground v.1.15,2013-06-21 03:27:00,
2013-06-20 23:28:00,77.1,72.6,30.06,ENE,70,3.0,5.0,86,0.00,,,0.00,Wunderground v.1.15,2013-06-21 03:28:00,
2013-06-20 23:29:00,77.1,72.6,30.06,ENE,65,3.0,3.0,86,0.00,,,0.00,Wunderground v.1.15,2013-06-21 03:29:00,
2013-06-20 23:30:00,77.1,72.6,30.06,East,93,3.0,4.0,86,0.00,,,0.00,Wunderground v.1.15,2013-06-21 03:30:00,
2013-06-20 23:31:00,77.0,72.5,30.06,East,79,4.0,5.0,86,0.00,,,0.00,Wunderground v.1.15,2013-06-21 03:31:00,
2013-06-20 23:32:00,77.0,72.5,30.06,East,96,4.0,5.0,86,0.00,,,0.00,Wunderground v.1.15,2013-06-21 03:32:00,
2013-06-20 23:33:00,76.9,72.4,30.06,East,82,2.0,5.0,86,0.00,,,0.00,Wunderground v.1.15,2013-06-21 03:33:00,
2013-06-20 23:35:00,76.9,72.4,30.06,East,82,3.0,5.0,86,0.00,,,0.00,Wunderground v.1.15,2013-06-21 03:35:00,
2013-06-20 23:36:00,76.8,72.3,30.07,East,82,3.0,5.0,86,0.00,,,0.00,Wunderground v.1.15,2013-06-21 03:36:00,
2013-06-20 23:37:00,76.8,72.3,30.07,ENE,58,6.0,6.0,86,0.00,,,0.00,Wunderground v.1.15,2013-06-21 03:37:00,
2013-06-20 23:39:00,76.8,72.3,30.07,ENE,69,4.0,6.0,86,0.00,,,0.00,Wunderground v.1.15,2013-06-21 03:39:00,
2013-06-20 23:40:00,76.7,72.5,30.07,NE,55,3.0,5.0,87,0.00,,,0.00,Wunderground v.1.15,2013-06-21 03:40:00,
2013-06-20 23:41:00,76.7,72.5,30.07,East,84,2.0,5.0,87,0.00,,,0.00,Wunderground v.1.15,2013-06-21 03:41:00,
2013-06-20 23:42:00,76.6,72.4,30.07,ENE,65,4.0,5.0,87,0.00,,,0.00,Wunderground v.1.15,2013-06-21 03:42:00,
2013-06-20 23:44:00,76.6,72.4,30.07,ENE,70,6.0,6.0,87,0.00,,,0.00,Wunderground v.1.15,2013-06-21 03:44:00,
2013-06-20 23:46:00,76.5,72.3,30.07,ENE,73,3.0,6.0,87,0.00,,,0.00,Wunderground v.1.15,2013-06-21 03:46:00,
2013-06-20 23:47:00,76.5,72.3,30.07,East,95,3.0,6.0,87,0.00,,,0.00,Wunderground v.1.15,2013-06-21 03:47:00,
2013-06-20 23:49:00,76.4,72.2,30.07,East,79,4.0,6.0,87,0.00,,,0.00,Wunderground v.1.15,2013-06-21 03:49:00,
2013-06-20 23:51:00,76.4,72.2,30.07,ENE,76,4.0,5.0,87,0.00,,,0.00,Wunderground v.1.15,2013-06-21 03:51:00,
2013-06-20 23:52:00,76.4,72.2,30.07,East,88,2.0,5.0,87,0.00,,,0.00,Wunderground v.1.15,2013-06-21 03:52:00,
2013-06-20 23:54:00,76.3,72.1,30.07,ENE,72,5.0,5.0,87,0.00,,,0.00,Wunderground v.1.15,2013-06-21 03:54:00,
2013-06-20 23:56:00,76.3,72.1,30.07,ENE,69,4.0,5.0,87,0.00,,,0.00,Wunderground v.1.15,2013-06-21 03:56:00,
2013-06-20 23:57:00,76.2,72.0,30.07,ENE,67,3.0,7.0,87,0.00,,,0.00,Wunderground v.1.15,2013-06-21 03:57:00,
2013-06-20 23:59:00,76.2,72.0,30.07,East,94,2.0,7.0,87,0.00,,,0.00,Wunderground v.1.15,2013-06-21 03:59:00,